Observation data for Stinnett on 11/19/2019      Previous  Date       Current Mesonet Observations  Soil Data  Daily Summary Page  Observations in Plain Language
KST3 190600Z 20004KT 12/M00 A30 RMK A01 T01211002  RH  043%=      5-min Rain = 0
KST3 190601Z 20004KT 12/M00 A30 RMK A01 T01201002  RH  043%=      5-min Rain = 0
KST3 190602Z 20004KT 12/M00 A30 RMK A01 T01191002  RH  043%=      5-min Rain = 0
KST3 190603Z 20004KT 12/M00 A30 RMK A01 T01181001  RH  044%=      5-min Rain = 0
KST3 190604Z 20005KT 12/M00 A30 RMK A01 T01181001  RH  044%=      5-min Rain = 0
KST3 190605Z 20005KT 12/M00 A30 RMK A01 T01191001  RH  044%=      5-min Rain = 0
KST3 190606Z 20004KT 12/M00 A30 RMK A01 T01201001  RH  043%=      5-min Rain = 0
KST3 190607Z 20004KT 12/M00 A30 RMK A01 T01201001  RH  043%=      5-min Rain = 0
KST3 190608Z 20004KT 12/M00 A30 RMK A01 T01201001  RH  043%=      5-min Rain = 0
KST3 190609Z 20005KT 12/M00 A30 RMK A01 T01201001  RH  043%=      5-min Rain = 0
KST3 190610Z 20005KT 12/00 A30 RMK A01 T012000-0  RH  044%=      5-min Rain = 0
KST3 190611Z 20004KT 12/00 A30 RMK A01 T012000-0  RH  044%=      5-min Rain = 0
KST3 190612Z 20004KT 12/00 A30 RMK A01 T011900-0  RH  044%=      5-min Rain = 0
KST3 190613Z 19004KT 12/00 A2999 RMK A01 T011900-0  RH  044%=      5-min Rain = 0
KST3 190614Z 18004KT 12/M00 A2999 RMK A01 T01191001  RH  044%=      5-min Rain = 0
KST3 190615Z 18004KT 12/00 A2999 RMK A01 T011900-0  RH  044%=      5-min Rain = 0
KST3 190616Z 18004KT 12/00 A2999 RMK A01 T01210000  RH  044%=      5-min Rain = 0
KST3 190617Z 18005KT 12/00 A2999 RMK A01 T01220001  RH  043%=      5-min Rain = 0
KST3 190618Z 18005KT 12/00 A2999 RMK A01 T01240001  RH  043%=      5-min Rain = 0
KST3 190619Z 18005KT 13/00 A2999 RMK A01 T01250000  RH  042%=      5-min Rain = 0
KST3 190620Z 19005KT 13/00 A2999 RMK A01 T01250000  RH  042%=      5-min Rain = 0
KST3 190621Z 20004KT 13/00 A30 RMK A01 T01260000  RH  042%=      5-min Rain = 0
KST3 190622Z 20004KT 13/00 A30 RMK A01 T01260000  RH  042%=      5-min Rain = 0
KST3 190623Z 20005KT 13/00 A30 RMK A01 T012500-0  RH  042%=      5-min Rain = 0
KST3 190624Z 20005KT 12/00 A30 RMK A01 T012400-0  RH  042%=      5-min Rain = 0
KST3 190625Z 21005KT 12/00 A30 RMK A01 T012400-0  RH  042%=      5-min Rain = 0
KST3 190626Z 22004KT 12/00 A30 RMK A01 T012400-0  RH  043%=      5-min Rain = 0
KST3 190627Z 21004KT 12/00 A30 RMK A01 T01240000  RH  043%=      5-min Rain = 0
KST3 190628Z 21004KT 12/00 A30 RMK A01 T01230000  RH  043%=      5-min Rain = 0
KST3 190629Z 21004KT 12/00 A30 RMK A01 T012300-0  RH  043%=      5-min Rain = 0
KST3 190630Z 20004KT 12/00 A30 RMK A01 T012200-0  RH  043%=      5-min Rain = 0
KST3 190631Z 20004KT 12/00 A30 RMK A01 T012200-0  RH  043%=      5-min Rain = 0
KST3 190632Z 20004KT 12/00 A2999 RMK A01 T01220000  RH  043%=      5-min Rain = 0
KST3 190633Z 20004KT 12/00 A2999 RMK A01 T01230000  RH  043%=      5-min Rain = 0
KST3 190634Z 19004KT 12/00 A2999 RMK A01 T01230000  RH  043%=      5-min Rain = 0
KST3 190635Z 19005KT 12/00 A2999 RMK A01 T01220000  RH  043%=      5-min Rain = 0
KST3 190636Z 19004KT 12/00 A2999 RMK A01 T01220001  RH  043%=      5-min Rain = 0
KST3 190637Z 19004KT 12/00 A2999 RMK A01 T01210001  RH  043%=      5-min Rain = 0
KST3 190638Z 19004KT 12/00 A2999 RMK A01 T01210001  RH  044%=      5-min Rain = 0
KST3 190639Z 19004KT 12/00 A2999 RMK A01 T01210001  RH  044%=      5-min Rain = 0
KST3 190640Z 19004KT 12/00 A2999 RMK A01 T01210002  RH  044%=      5-min Rain = 0
KST3 190641Z 19004KT 12/00 A2999 RMK A01 T01220002  RH  044%=      5-min Rain = 0
KST3 190642Z 19004KT 12/00 A2999 RMK A01 T01220001  RH  044%=      5-min Rain = 0
KST3 190643Z 18004KT 12/00 A2999 RMK A01 T01220002  RH  043%=      5-min Rain = 0
KST3 190644Z 18004KT 12/00 A2999 RMK A01 T01230002  RH  043%=      5-min Rain = 0
KST3 190645Z 18004KT 12/00 A2999 RMK A01 T01240002  RH  043%=      5-min Rain = 0
KST3 190646Z 17004KT 12/00 A2999 RMK A01 T01240002  RH  043%=      5-min Rain = 0
KST3 190647Z 17003KT 13/00 A2999 RMK A01 T01250002  RH  043%=      5-min Rain = 0
KST3 190648Z 16004KT 13/00 A2999 RMK A01 T01260002  RH  043%=      5-min Rain = 0
KST3 190649Z 16003KT 13/00 A2999 RMK A01 T01270003  RH  043%=      5-min Rain = 0
KST3 190650Z 16003KT 13/00 A2999 RMK A01 T01280003  RH  042%=      5-min Rain = 0
KST3 190651Z 16003KT 13/00 A2999 RMK A01 T01290003  RH  042%=      5-min Rain = 0
KST3 190652Z 16003KT 13/00 A2999 RMK A01 T01300003  RH  042%=      5-min Rain = 0
KST3 190653Z 15003KT 13/00 A2999 RMK A01 T01300003  RH  042%=      5-min Rain = 0
KST3 190654Z 15003KT 13/00 A2999 RMK A01 T01300003  RH  042%=      5-min Rain = 0
KST3 190655Z 15003KT 13/00 A2999 RMK A01 T01300003  RH  042%=      5-min Rain = 0
KST3 190656Z 14003KT 13/00 A2999 RMK A01 T01300003  RH  042%=      5-min Rain = 0
KST3 190657Z 14003KT 13/00 A2999 RMK A01 T01310004  RH  042%=      5-min Rain = 0
KST3 190658Z 14003KT 13/00 A2999 RMK A01 T01320004  RH  042%=      5-min Rain = 0
KST3 190659Z 14003KT 13/00 A2999 RMK A01 T01320004  RH  041%=      5-min Rain = 0
KST3 190700Z 13004KT 13/00 A2999 RMK A01 T01320004  RH  041%=      5-min Rain = 0
KST3 190701Z 12004KT 13/00 A2999 RMK A01 T01320004  RH  042%=      5-min Rain = 0
KST3 190702Z 12004KT 13/01 A2999 RMK A01 T01330005  RH  042%=      5-min Rain = 0
KST3 190703Z 12004KT 13/01 A2999 RMK A01 T01330006  RH  042%=      5-min Rain = 0
KST3 190704Z 11004KT 13/01 A2999 RMK A01 T01330005  RH  042%=      5-min Rain = 0
KST3 190705Z 11004KT 13/00 A2999 RMK A01 T01330004  RH  041%=      5-min Rain = 0
KST3 190706Z 11004KT 13/00 A2999 RMK A01 T01310004  RH  042%=      5-min Rain = 0
KST3 190707Z 11004KT 13/00 A2999 RMK A01 T01290004  RH  042%=      5-min Rain = 0
KST3 190708Z 11004KT 13/00 A2999 RMK A01 T01270004  RH  043%=      5-min Rain = 0
KST3 190709Z 11004KT 13/00 A2999 RMK A01 T01260004  RH  043%=      5-min Rain = 0
KST3 190710Z 10004KT 13/00 A2999 RMK A01 T01250004  RH  043%=      5-min Rain = 0
KST3 190711Z 10004KT 12/00 A2999 RMK A01 T01230004  RH  044%=      5-min Rain = 0
KST3 190712Z 10004KT 12/00 A2999 RMK A01 T01210004  RH  044%=      5-min Rain = 0
KST3 190713Z 10004KT 12/00 A2999 RMK A01 T01200004  RH  045%=      5-min Rain = 0
KST3 190714Z 10004KT 12/00 A2999 RMK A01 T01180003  RH  045%=      5-min Rain = 0
KST3 190715Z 10004KT 12/00 A2999 RMK A01 T01170004  RH  045%=      5-min Rain = 0
KST3 190716Z 10004KT 12/00 A2999 RMK A01 T01180004  RH  046%=      5-min Rain = 0
KST3 190717Z 10004KT 12/00 A2999 RMK A01 T01180004  RH  046%=      5-min Rain = 0
KST3 190718Z 10004KT 12/00 A2999 RMK A01 T01170004  RH  046%=      5-min Rain = 0
KST3 190719Z 10004KT 12/00 A2999 RMK A01 T01180004  RH  046%=      5-min Rain = 0
KST3 190720Z 10004KT 12/00 A2999 RMK A01 T01180004  RH  046%=      5-min Rain = 0
KST3 190721Z 09003KT 12/00 A2999 RMK A01 T01180004  RH  045%=      5-min Rain = 0
KST3 190722Z 09003KT 12/00 A2999 RMK A01 T01180004  RH  045%=      5-min Rain = 0
KST3 190723Z 09003KT 12/00 A2999 RMK A01 T01180004  RH  045%=      5-min Rain = 0
KST3 190724Z 09003KT 12/00 A2999 RMK A01 T01190004  RH  045%=      5-min Rain = 0
KST3 190725Z 09003KT 12/00 A30 RMK A01 T01190004  RH  045%=      5-min Rain = 0
KST3 190726Z 09003KT 12/00 A30 RMK A01 T01190004  RH  045%=      5-min Rain = 0
KST3 190727Z 10003KT 12/00 A30 RMK A01 T01200004  RH  045%=      5-min Rain = 0
KST3 190728Z 10003KT 12/00 A30 RMK A01 T01210004  RH  045%=      5-min Rain = 0
KST3 190729Z 10003KT 12/00 A30 RMK A01 T01210004  RH  045%=      5-min Rain = 0
KST3 190730Z 10003KT 12/00 A30 RMK A01 T01210004  RH  045%=      5-min Rain = 0
KST3 190731Z 11003KT 12/00 A30 RMK A01 T01210004  RH  045%=      5-min Rain = 0
KST3 190732Z 11003KT 12/00 A30 RMK A01 T01210004  RH  045%=      5-min Rain = 0
KST3 190733Z 11003KT 12/01 A30 RMK A01 T01210005  RH  045%=      5-min Rain = 0
KST3 190734Z 12003KT 12/00 A30 RMK A01 T01210004  RH  045%=      5-min Rain = 0
KST3 190735Z 12003KT 12/01 A30 RMK A01 T01200005  RH  045%=      5-min Rain = 0
KST3 190736Z 12003KT 12/01 A30 RMK A01 T01210005  RH  045%=      5-min Rain = 0
KST3 190737Z 12003KT 12/01 A30 RMK A01 T01210005  RH  045%=      5-min Rain = 0
KST3 190738Z 12003KT 12/01 A30 RMK A01 T01230006  RH  045%=      5-min Rain = 0
KST3 190739Z 12003KT 13/01 A30 RMK A01 T01250006  RH  044%=      5-min Rain = 0
KST3 190740Z 12003KT 13/01 A30 RMK A01 T01270006  RH  044%=      5-min Rain = 0
KST3 190741Z 13003KT 13/01 A30 RMK A01 T01280006  RH  043%=      5-min Rain = 0
KST3 190742Z 13003KT 13/01 A30 RMK A01 T01280006  RH  043%=      5-min Rain = 0
KST3 190743Z 14004KT 13/01 A30 RMK A01 T01280006  RH  043%=      5-min Rain = 0
KST3 190744Z 14004KT 13/01 A30 RMK A01 T01290006  RH  043%=      5-min Rain = 0
KST3 190745Z 14004KT 13/01 A30 RMK A01 T01300006  RH  043%=      5-min Rain = 0
KST3 190746Z 14004KT 13/01 A30 RMK A01 T01300006  RH  043%=      5-min Rain = 0
KST3 190747Z 14004KT 13/01 A30 RMK A01 T01300006  RH  043%=      5-min Rain = 0
KST3 190748Z 14004KT 13/01 A30 RMK A01 T01290006  RH  043%=      5-min Rain = 0
KST3 190749Z 14004KT 13/01 A30 RMK A01 T01290006  RH  043%=      5-min Rain = 0
KST3 190750Z 14004KT 13/01 A30 RMK A01 T01290006  RH  043%=      5-min Rain = 0
KST3 190751Z 14004KT 13/01 A30 RMK A01 T01290006  RH  043%=      5-min Rain = 0
KST3 190752Z 15004KT 13/01 A30 RMK A01 T01290006  RH  043%=      5-min Rain = 0
KST3 190753Z 15004KT 13/01 A30 RMK A01 T01280006  RH  043%=      5-min Rain = 0
KST3 190754Z 15004KT 13/01 A30 RMK A01 T01280006  RH  043%=      5-min Rain = 0
KST3 190755Z 15004KT 13/01 A30 RMK A01 T01280006  RH  043%=      5-min Rain = 0
KST3 190756Z 16004KT 13/01 A30 RMK A01 T01280006  RH  043%=      5-min Rain = 0
KST3 190757Z 16004KT 13/01 A30 RMK A01 T01280006  RH  043%=      5-min Rain = 0
KST3 190758Z 16004KT 13/01 A30 RMK A01 T01280006  RH  043%=      5-min Rain = 0
KST3 190759Z 17004KT 13/01 A30 RMK A01 T01280006  RH  043%=      5-min Rain = 0
KST3 190800Z 18005KT 13/01 A30 RMK A01 T01280006  RH  043%=      5-min Rain = 0
KST3 190801Z 18006KT 13/01 A30 RMK A01 T01270006  RH  043%=      5-min Rain = 0
KST3 190802Z 19006KT 13/01 A30 RMK A01 T01260006  RH  044%=      5-min Rain = 0
KST3 190803Z 20006KT 12/01 A30 RMK A01 T01230006  RH  045%=      5-min Rain = 0
KST3 190804Z 20005KT 12/01 A30 RMK A01 T01190005  RH  046%=      5-min Rain = 0
KST3 190805Z 22006KT 11/00 A30 RMK A01 T01130003  RH  047%=      5-min Rain = 0
KST3 190806Z 23006KT 11/00 A30 RMK A01 T01070002  RH  048%=      5-min Rain = 0
KST3 190807Z 24007KT 10/00 A30 RMK A01 T00990001  RH  051%=      5-min Rain = 0
KST3 190808Z 25007KT 09/M00 A30 RMK A01 T00861001  RH  054%=      5-min Rain = 0
KST3 190809Z 26008KT 08/M00 A30 RMK A01 T00771001  RH  058%=      5-min Rain = 0
KST3 190810Z 26009KT 07/00 A30 RMK A01 T006900-0  RH  061%=      5-min Rain = 0
KST3 190811Z 26009KT 07/00 A30 RMK A01 T00650001  RH  063%=      5-min Rain = 0
KST3 190812Z 26009KT 06/00 A30 RMK A01 T00620001  RH  065%=      5-min Rain = 0
KST3 190813Z 25008KT 06/00 A30 RMK A01 T00600001  RH  066%=      5-min Rain = 0
KST3 190814Z 26008KT 06/00 A30 RMK A01 T00600002  RH  066%=      5-min Rain = 0
KST3 190815Z 26007KT 06/00 A30 RMK A01 T00600002  RH  066%=      5-min Rain = 0
KST3 190816Z 25008KT 06/00 A30 RMK A01 T00600002  RH  066%=      5-min Rain = 0
KST3 190817Z 25008KT 06/00 A30 RMK A01 T00610002  RH  066%=      5-min Rain = 0
KST3 190818Z 25008KT 06/00 A30 RMK A01 T00640003  RH  065%=      5-min Rain = 0
KST3 190819Z 25008KT 07/00 A30 RMK A01 T00660003  RH  064%=      5-min Rain = 0
KST3 190820Z 25008KT 07/00 A30 RMK A01 T00680003  RH  063%=      5-min Rain = 0
KST3 190821Z 25008KT 07/00 A30 RMK A01 T00700003  RH  062%=      5-min Rain = 0
KST3 190822Z 25008KT 07/00 A30 RMK A01 T00740004  RH  061%=      5-min Rain = 0
KST3 190823Z 25007KT 08/00 A30 RMK A01 T00760003  RH  060%=      5-min Rain = 0
KST3 190824Z 25007KT 08/00 A30 RMK A01 T00780003  RH  059%=      5-min Rain = 0
KST3 190825Z 25007KT 08/00 A30 RMK A01 T00800003  RH  058%=      5-min Rain = 0
KST3 190826Z 25007KT 08/00 A30 RMK A01 T00820003  RH  058%=      5-min Rain = 0
KST3 190827Z 25006KT 08/00 A30 RMK A01 T00830003  RH  057%=      5-min Rain = 0
KST3 190828Z 25006KT 08/00 A30 RMK A01 T00840003  RH  057%=      5-min Rain = 0
KST3 190829Z 25006KT 09/00 A30 RMK A01 T00870003  RH  056%=      5-min Rain = 0
KST3 190830Z 25006KT 09/00 A30 RMK A01 T00880003  RH  055%=      5-min Rain = 0
KST3 190831Z 25006KT 09/00 A30 RMK A01 T00900003  RH  054%=      5-min Rain = 0
KST3 190832Z 25006KT 09/00 A30 RMK A01 T00910003  RH  054%=      5-min Rain = 0
KST3 190833Z 25006KT 09/00 A30 RMK A01 T00920002  RH  053%=      5-min Rain = 0
KST3 190834Z 25005KT 09/00 A30 RMK A01 T00920002  RH  053%=      5-min Rain = 0
KST3 190835Z 24005KT 09/00 A30 RMK A01 T00920002  RH  053%=      5-min Rain = 0
KST3 190836Z 24005KT 09/00 A30 RMK A01 T00930003  RH  053%=      5-min Rain = 0
KST3 190837Z 24005KT 10/00 A30 RMK A01 T00950002  RH  053%=      5-min Rain = 0
KST3 190838Z 24005KT 10/00 A30 RMK A01 T00970003  RH  052%=      5-min Rain = 0
KST3 190839Z 24005KT 10/00 A30 RMK A01 T00980002  RH  051%=      5-min Rain = 0
KST3 190840Z 23006KT 10/00 A30 RMK A01 T00980002  RH  051%=      5-min Rain = 0
KST3 190841Z 23006KT 10/00 A30 RMK A01 T00980002  RH  051%=      5-min Rain = 0
KST3 190842Z 23005KT 10/00 A30 RMK A01 T00980003  RH  051%=      5-min Rain = 0
KST3 190843Z 22005KT 10/00 A30 RMK A01 T00990002  RH  051%=      5-min Rain = 0
KST3 190844Z 22005KT 10/00 A30 RMK A01 T00990002  RH  051%=      5-min Rain = 0
KST3 190845Z 22005KT 10/00 A30 RMK A01 T00990002  RH  051%=      5-min Rain = 0
KST3 190846Z 22005KT 10/00 A30 RMK A01 T01000002  RH  051%=      5-min Rain = 0
KST3 190847Z 21005KT 10/00 A30 RMK A01 T00990002  RH  051%=      5-min Rain = 0
KST3 190848Z 21005KT 10/00 A30 RMK A01 T01000002  RH  051%=      5-min Rain = 0
KST3 190849Z 21005KT 10/00 A30 RMK A01 T01010003  RH  051%=      5-min Rain = 0
KST3 190850Z 21005KT 10/00 A30 RMK A01 T01030004  RH  050%=      5-min Rain = 0
KST3 190851Z 21005KT 11/00 A30 RMK A01 T01060004  RH  049%=      5-min Rain = 0
KST3 190852Z 21005KT 11/00 A30 RMK A01 T01070004  RH  049%=      5-min Rain = 0
KST3 190853Z 21005KT 11/00 A30 RMK A01 T01080004  RH  048%=      5-min Rain = 0
KST3 190854Z 21005KT 11/00 A30 RMK A01 T01090004  RH  048%=      5-min Rain = 0
KST3 190855Z 21005KT 11/00 A30 RMK A01 T01100004  RH  048%=      5-min Rain = 0
KST3 190856Z 21005KT 11/00 A30 RMK A01 T01100003  RH  048%=      5-min Rain = 0
KST3 190857Z 21005KT 11/00 A30 RMK A01 T01100003  RH  048%=      5-min Rain = 0
KST3 190858Z 21005KT 11/00 A30 RMK A01 T01100003  RH  048%=      5-min Rain = 0
KST3 190859Z 20005KT 11/00 A30 RMK A01 T01100004  RH  048%=      5-min Rain = 0
KST3 190900Z 20005KT 11/00 A30 RMK A01 T01120004  RH  047%=      5-min Rain = 0
KST3 190901Z 20005KT 11/00 A30 RMK A01 T01130004  RH  047%=      5-min Rain = 0
KST3 190902Z 20005KT 11/00 A30 RMK A01 T01130004  RH  047%=      5-min Rain = 0
KST3 190903Z 19005KT 11/00 A30 RMK A01 T01140004  RH  047%=      5-min Rain = 0
KST3 190904Z 19005KT 11/00 A30 RMK A01 T01140004  RH  047%=      5-min Rain = 0
KST3 190905Z 19005KT 12/01 A30 RMK A01 T01150005  RH  046%=      5-min Rain = 0
KST3 190906Z 19005KT 12/00 A30 RMK A01 T01160004  RH  046%=      5-min Rain = 0
KST3 190907Z 19005KT 12/00 A30 RMK A01 T01160004  RH  046%=      5-min Rain = 0
KST3 190908Z 18005KT 12/01 A30 RMK A01 T01170005  RH  046%=      5-min Rain = 0
KST3 190909Z 18004KT 12/01 A30 RMK A01 T01190005  RH  046%=      5-min Rain = 0
KST3 190910Z 18004KT 12/01 A2999 RMK A01 T01200005  RH  045%=      5-min Rain = 0
KST3 190911Z 18004KT 12/01 A2999 RMK A01 T01200005  RH  045%=      5-min Rain = 0
KST3 190912Z 18004KT 12/01 A2999 RMK A01 T01210006  RH  045%=      5-min Rain = 0
KST3 190913Z 17004KT 12/01 A2999 RMK A01 T01220006  RH  045%=      5-min Rain = 0
KST3 190914Z 17004KT 12/01 A2999 RMK A01 T01230006  RH  045%=      5-min Rain = 0
KST3 190915Z 17005KT 12/01 A2999 RMK A01 T01240006  RH  045%=      5-min Rain = 0
KST3 190916Z 17005KT 12/01 A2999 RMK A01 T01240007  RH  044%=      5-min Rain = 0
KST3 190917Z 17005KT 13/01 A2999 RMK A01 T01250007  RH  044%=      5-min Rain = 0
KST3 190918Z 17005KT 13/01 A2999 RMK A01 T01260007  RH  044%=      5-min Rain = 0
KST3 190919Z 16005KT 13/01 A2999 RMK A01 T01260007  RH  044%=      5-min Rain = 0
KST3 190920Z 16005KT 13/01 A2999 RMK A01 T01260007  RH  044%=      5-min Rain = 0
KST3 190921Z 16005KT 13/01 A2999 RMK A01 T01260007  RH  044%=      5-min Rain = 0
KST3 190922Z 16005KT 13/01 A2999 RMK A01 T01260007  RH  044%=      5-min Rain = 0
KST3 190923Z 16005KT 13/01 A2999 RMK A01 T01260007  RH  044%=      5-min Rain = 0
KST3 190924Z 16005KT 13/01 A2999 RMK A01 T01250007  RH  044%=      5-min Rain = 0
KST3 190925Z 16005KT 12/01 A2999 RMK A01 T01240007  RH  045%=      5-min Rain = 0
KST3 190926Z 16005KT 12/01 A2998 RMK A01 T01240007  RH  045%=      5-min Rain = 0
KST3 190927Z 16005KT 12/01 A2998 RMK A01 T01230007  RH  045%=      5-min Rain = 0
KST3 190928Z 17005KT 12/01 A2998 RMK A01 T01230006  RH  045%=      5-min Rain = 0
KST3 190929Z 17005KT 12/01 A2998 RMK A01 T01230007  RH  045%=      5-min Rain = 0
KST3 190930Z 17006KT 12/01 A2998 RMK A01 T01220007  RH  045%=      5-min Rain = 0
KST3 190931Z 17006KT 12/01 A2998 RMK A01 T01210007  RH  045%=      5-min Rain = 0
KST3 190932Z 16006KT 12/01 A2998 RMK A01 T01200007  RH  046%=      5-min Rain = 0
KST3 190933Z 17006KT 12/01 A2998 RMK A01 T01180007  RH  046%=      5-min Rain = 0
KST3 190934Z 17005KT 12/01 A2998 RMK A01 T01170007  RH  047%=      5-min Rain = 0
KST3 190935Z 17006KT 12/01 A2998 RMK A01 T01170007  RH  047%=      5-min Rain = 0
KST3 190936Z 17005KT 12/01 A2998 RMK A01 T01160007  RH  047%=      5-min Rain = 0
KST3 190937Z 17005KT 12/01 A2998 RMK A01 T01160007  RH  047%=      5-min Rain = 0
KST3 190938Z 17005KT 12/01 A2998 RMK A01 T01150007  RH  047%=      5-min Rain = 0
KST3 190939Z 17005KT 12/01 A2998 RMK A01 T01150006  RH  047%=      5-min Rain = 0
KST3 190940Z 16005KT 12/01 A2998 RMK A01 T01150006  RH  047%=      5-min Rain = 0
KST3 190941Z 16005KT 12/01 A2998 RMK A01 T01150006  RH  047%=      5-min Rain = 0
KST3 190942Z 15005KT 11/01 A2998 RMK A01 T01140005  RH  047%=      5-min Rain = 0
KST3 190943Z 15004KT 11/01 A2997 RMK A01 T01130005  RH  047%=      5-min Rain = 0
KST3 190944Z 14005KT 11/00 A2997 RMK A01 T01120004  RH  048%=      5-min Rain = 0
KST3 190945Z 14005KT 11/01 A2997 RMK A01 T01120005  RH  048%=      5-min Rain = 0
KST3 190946Z 14005KT 11/01 A2997 RMK A01 T01120005  RH  048%=      5-min Rain = 0
KST3 190947Z 13005KT 11/01 A2997 RMK A01 T01110005  RH  048%=      5-min Rain = 0
KST3 190948Z 13005KT 11/00 A2997 RMK A01 T01100004  RH  048%=      5-min Rain = 0
KST3 190949Z 13005KT 11/01 A2997 RMK A01 T01100005  RH  048%=      5-min Rain = 0
KST3 190950Z 13005KT 11/01 A2997 RMK A01 T01100005  RH  048%=      5-min Rain = 0
KST3 190951Z 13005KT 11/01 A2997 RMK A01 T01110006  RH  048%=      5-min Rain = 0
KST3 190952Z 14005KT 11/01 A2997 RMK A01 T01110005  RH  048%=      5-min Rain = 0
KST3 190953Z 14005KT 11/01 A2997 RMK A01 T01110005  RH  048%=      5-min Rain = 0
KST3 190954Z 14005KT 11/01 A2997 RMK A01 T01100005  RH  048%=      5-min Rain = 0
KST3 190955Z 14005KT 11/01 A2997 RMK A01 T01110006  RH  048%=      5-min Rain = 0
KST3 190956Z 14005KT 11/01 A2997 RMK A01 T01100005  RH  048%=      5-min Rain = 0
KST3 190957Z 14005KT 11/01 A2997 RMK A01 T01100006  RH  048%=      5-min Rain = 0
KST3 190958Z 14005KT 11/01 A2997 RMK A01 T01100005  RH  049%=      5-min Rain = 0
KST3 190959Z 14005KT 11/01 A2997 RMK A01 T01090005  RH  049%=      5-min Rain = 0
KST3 191000Z 14005KT 11/01 A2997 RMK A01 T01080005  RH  049%=      5-min Rain = 0
KST3 191001Z 14005KT 11/00 A2997 RMK A01 T01070004  RH  049%=      5-min Rain = 0
KST3 191002Z 14005KT 11/00 A2997 RMK A01 T01060004  RH  049%=      5-min Rain = 0
KST3 191003Z 14005KT 11/00 A2997 RMK A01 T01060004  RH  049%=      5-min Rain = 0
KST3 191004Z 14005KT 11/00 A2996 RMK A01 T01060004  RH  050%=      5-min Rain = 0
KST3 191005Z 14005KT 11/00 A2996 RMK A01 T01050004  RH  050%=      5-min Rain = 0
KST3 191006Z 15005KT 11/00 A2996 RMK A01 T01050004  RH  050%=      5-min Rain = 0
KST3 191007Z 15005KT 11/00 A2996 RMK A01 T01050004  RH  050%=      5-min Rain = 0
KST3 191008Z 15005KT 10/00 A2996 RMK A01 T01040004  RH  050%=      5-min Rain = 0
KST3 191009Z 15006KT 10/00 A2997 RMK A01 T01040003  RH  049%=      5-min Rain = 0
KST3 191010Z 15006KT 11/00 A2997 RMK A01 T01050003  RH  049%=      5-min Rain = 0
KST3 191011Z 15006KT 11/00 A2997 RMK A01 T01050003  RH  049%=      5-min Rain = 0
KST3 191012Z 15006KT 11/00 A2997 RMK A01 T01050003  RH  049%=      5-min Rain = 0
KST3 191013Z 15006KT 11/00 A2997 RMK A01 T01050003  RH  049%=      5-min Rain = 0
KST3 191014Z 16006KT 11/00 A2997 RMK A01 T01050004  RH  049%=      5-min Rain = 0
KST3 191015Z 16006KT 11/00 A2997 RMK A01 T01050004  RH  050%=      5-min Rain = 0
KST3 191016Z 16005KT 11/00 A2997 RMK A01 T01050004  RH  050%=      5-min Rain = 0
KST3 191017Z 16005KT 10/00 A2997 RMK A01 T01040004  RH  050%=      5-min Rain = 0
KST3 191018Z 17005KT 10/00 A2997 RMK A01 T01040004  RH  050%=      5-min Rain = 0
KST3 191019Z 17005KT 10/00 A2996 RMK A01 T01040004  RH  050%=      5-min Rain = 0
KST3 191020Z 17006KT 10/00 A2996 RMK A01 T01040004  RH  050%=      5-min Rain = 0
KST3 191021Z 17006KT 10/00 A2996 RMK A01 T01040004  RH  050%=      5-min Rain = 0
KST3 191022Z 17006KT 10/00 A2996 RMK A01 T01040004  RH  050%=      5-min Rain = 0
KST3 191023Z 17006KT 10/01 A2996 RMK A01 T01040005  RH  050%=      5-min Rain = 0
KST3 191024Z 17006KT 10/01 A2996 RMK A01 T01030005  RH  051%=      5-min Rain = 0
KST3 191025Z 17007KT 10/01 A2996 RMK A01 T01020005  RH  051%=      5-min Rain = 0
KST3 191026Z 17007KT 10/01 A2996 RMK A01 T01020006  RH  051%=      5-min Rain = 0
KST3 191027Z 17007KT 10/01 A2996 RMK A01 T01010005  RH  051%=      5-min Rain = 0
KST3 191028Z 17007KT 10/01 A2996 RMK A01 T01010005  RH  052%=      5-min Rain = 0
KST3 191029Z 17007KT 10/01 A2996 RMK A01 T01000006  RH  052%=      5-min Rain = 0
KST3 191030Z 17006KT 10/01 A2996 RMK A01 T01000006  RH  052%=      5-min Rain = 0
KST3 191031Z 16006KT 10/01 A2996 RMK A01 T00990006  RH  052%=      5-min Rain = 0
KST3 191032Z 16006KT 10/01 A2996 RMK A01 T00990006  RH  052%=      5-min Rain = 0
KST3 191033Z 16006KT 10/01 A2996 RMK A01 T00980006  RH  052%=      5-min Rain = 0
KST3 191034Z 16006KT 10/01 A2996 RMK A01 T00980006  RH  052%=      5-min Rain = 0
KST3 191035Z 16005KT 10/01 A2996 RMK A01 T00980006  RH  052%=      5-min Rain = 0
KST3 191036Z 16006KT 10/01 A2996 RMK A01 T00980005  RH  052%=      5-min Rain = 0
KST3 191037Z 17006KT 10/01 A2996 RMK A01 T00980005  RH  052%=      5-min Rain = 0
KST3 191038Z 17006KT 10/01 A2996 RMK A01 T00980005  RH  052%=      5-min Rain = 0
KST3 191039Z 17006KT 10/01 A2996 RMK A01 T00980005  RH  052%=      5-min Rain = 0
KST3 191040Z 17006KT 10/01 A2996 RMK A01 T00980005  RH  053%=      5-min Rain = 0
KST3 191041Z 17006KT 10/01 A2996 RMK A01 T00970005  RH  053%=      5-min Rain = 0
KST3 191042Z 17006KT 10/01 A2996 RMK A01 T00970005  RH  053%=      5-min Rain = 0
KST3 191043Z 17006KT 10/01 A2996 RMK A01 T00970005  RH  053%=      5-min Rain = 0
KST3 191044Z 17006KT 10/01 A2996 RMK A01 T00960005  RH  053%=      5-min Rain = 0
KST3 191045Z 17006KT 10/00 A2996 RMK A01 T00960004  RH  053%=      5-min Rain = 0
KST3 191046Z 17006KT 10/00 A2996 RMK A01 T00960004  RH  053%=      5-min Rain = 0
KST3 191047Z 17005KT 10/00 A2996 RMK A01 T00970004  RH  052%=      5-min Rain = 0
KST3 191048Z 17005KT 10/01 A2996 RMK A01 T00970005  RH  053%=      5-min Rain = 0
KST3 191049Z 17006KT 10/00 A2996 RMK A01 T00960004  RH  053%=      5-min Rain = 0
KST3 191050Z 17005KT 10/00 A2996 RMK A01 T00960004  RH  053%=      5-min Rain = 0
KST3 191051Z 17005KT 10/00 A2996 RMK A01 T00950004  RH  053%=      5-min Rain = 0
KST3 191052Z 17006KT 10/00 A2996 RMK A01 T00960004  RH  053%=      5-min Rain = 0
KST3 191053Z 18006KT 10/00 A2996 RMK A01 T00950003  RH  053%=      5-min Rain = 0
KST3 191054Z 18006KT 10/00 A2996 RMK A01 T00950003  RH  053%=      5-min Rain = 0
KST3 191055Z 18006KT 09/00 A2996 RMK A01 T00940002  RH  053%=      5-min Rain = 0
KST3 191056Z 18006KT 09/00 A2996 RMK A01 T00930002  RH  053%=      5-min Rain = 0
KST3 191057Z 18006KT 09/00 A2996 RMK A01 T00920002  RH  053%=      5-min Rain = 0
KST3 191058Z 18006KT 09/00 A2996 RMK A01 T00920002  RH  054%=      5-min Rain = 0
KST3 191059Z 18006KT 09/00 A2996 RMK A01 T00920003  RH  054%=      5-min Rain = 0
KST3 191100Z 18005KT 09/00 A2996 RMK A01 T00920002  RH  053%=      5-min Rain = 0
KST3 191101Z 18006KT 09/00 A2996 RMK A01 T00920002  RH  053%=      5-min Rain = 0
KST3 191102Z 18006KT 09/00 A2996 RMK A01 T00920002  RH  054%=      5-min Rain = 0
KST3 191103Z 18006KT 09/00 A2996 RMK A01 T00920002  RH  053%=      5-min Rain = 0
KST3 191104Z 18006KT 09/00 A2996 RMK A01 T00910002  RH  053%=      5-min Rain = 0
KST3 191105Z 18006KT 09/00 A2996 RMK A01 T00900001  RH  054%=      5-min Rain = 0
KST3 191106Z 18006KT 09/00 A2996 RMK A01 T00900002  RH  054%=      5-min Rain = 0
KST3 191107Z 18006KT 09/00 A2996 RMK A01 T00890001  RH  054%=      5-min Rain = 0
KST3 191108Z 18006KT 09/00 A2996 RMK A01 T00870001  RH  055%=      5-min Rain = 0
KST3 191109Z 19006KT 09/00 A2996 RMK A01 T00870002  RH  055%=      5-min Rain = 0
KST3 191110Z 19006KT 09/00 A2996 RMK A01 T00860002  RH  055%=      5-min Rain = 0
KST3 191111Z 19006KT 09/00 A2996 RMK A01 T00850002  RH  056%=      5-min Rain = 0
KST3 191112Z 19006KT 08/00 A2996 RMK A01 T00840001  RH  056%=      5-min Rain = 0
KST3 191113Z 19006KT 08/00 A2996 RMK A01 T00820001  RH  057%=      5-min Rain = 0
KST3 191114Z 19006KT 08/00 A2996 RMK A01 T00800000  RH  057%=      5-min Rain = 0
KST3 191115Z 19006KT 08/00 A2996 RMK A01 T00790000  RH  057%=      5-min Rain = 0
KST3 191116Z 19006KT 08/00 A2996 RMK A01 T00780000  RH  058%=      5-min Rain = 0
KST3 191117Z 19006KT 08/00 A2996 RMK A01 T00770000  RH  058%=      5-min Rain = 0
KST3 191118Z 19006KT 08/00 A2996 RMK A01 T00770001  RH  058%=      5-min Rain = 0
KST3 191119Z 19006KT 08/00 A2996 RMK A01 T00770001  RH  058%=      5-min Rain = 0
KST3 191120Z 19006KT 08/00 A2996 RMK A01 T00770001  RH  059%=      5-min Rain = 0
KST3 191121Z 19006KT 08/00 A2996 RMK A01 T00770001  RH  059%=      5-min Rain = 0
KST3 191122Z 19006KT 08/00 A2995 RMK A01 T00760001  RH  059%=      5-min Rain = 0
KST3 191123Z 19007KT 08/00 A2995 RMK A01 T00760001  RH  059%=      5-min Rain = 0
KST3 191124Z 19006KT 08/00 A2995 RMK A01 T00760002  RH  059%=      5-min Rain = 0
KST3 191125Z 19006KT 08/00 A2995 RMK A01 T00770002  RH  059%=      5-min Rain = 0
KST3 191126Z 19006KT 08/00 A2995 RMK A01 T00770002  RH  059%=      5-min Rain = 0
KST3 191127Z 19006KT 08/00 A2995 RMK A01 T00760001  RH  059%=      5-min Rain = 0
KST3 191128Z 19006KT 08/00 A2995 RMK A01 T00750001  RH  059%=      5-min Rain = 0
KST3 191129Z 19006KT 07/00 A2995 RMK A01 T00740000  RH  059%=      5-min Rain = 0
KST3 191130Z 20006KT 07/00 A2995 RMK A01 T00730000  RH  060%=      5-min Rain = 0
KST3 191131Z 20006KT 07/00 A2995 RMK A01 T007100-0  RH  060%=      5-min Rain = 0
KST3 191132Z 20005KT 07/00 A2995 RMK A01 T00710000  RH  061%=      5-min Rain = 0
KST3 191133Z 20005KT 07/00 A2995 RMK A01 T00710001  RH  061%=      5-min Rain = 0
KST3 191134Z 20005KT 07/00 A2995 RMK A01 T00710001  RH  061%=      5-min Rain = 0
KST3 191135Z 20005KT 07/00 A2995 RMK A01 T00710001  RH  061%=      5-min Rain = 0
KST3 191136Z 20005KT 07/00 A2995 RMK A01 T00710001  RH  061%=      5-min Rain = 0
KST3 191137Z 20005KT 07/00 A2995 RMK A01 T00710000  RH  061%=      5-min Rain = 0
KST3 191138Z 20005KT 07/00 A2995 RMK A01 T00720001  RH  061%=      5-min Rain = 0
KST3 191139Z 20006KT 07/00 A2995 RMK A01 T00720001  RH  061%=      5-min Rain = 0
KST3 191140Z 20005KT 07/00 A2995 RMK A01 T00720001  RH  061%=      5-min Rain = 0
KST3 191141Z 20006KT 07/00 A2995 RMK A01 T00720002  RH  061%=      5-min Rain = 0
KST3 191142Z 20006KT 07/00 A2995 RMK A01 T00730002  RH  061%=      5-min Rain = 0
KST3 191143Z 20006KT 07/00 A2995 RMK A01 T00740002  RH  060%=      5-min Rain = 0
KST3 191144Z 19006KT 07/00 A2995 RMK A01 T00740002  RH  060%=      5-min Rain = 0
KST3 191145Z 19006KT 07/00 A2995 RMK A01 T00740002  RH  060%=      5-min Rain = 0
KST3 191146Z 19006KT 07/00 A2995 RMK A01 T00730001  RH  060%=      5-min Rain = 0
KST3 191147Z 19006KT 07/00 A2995 RMK A01 T00730002  RH  060%=      5-min Rain = 0
KST3 191148Z 19006KT 07/00 A2995 RMK A01 T00740003  RH  060%=      5-min Rain = 0
KST3 191149Z 19006KT 08/00 A2995 RMK A01 T00760003  RH  060%=      5-min Rain = 0
KST3 191150Z 19006KT 08/00 A2994 RMK A01 T00770004  RH  060%=      5-min Rain = 0
KST3 191151Z 19006KT 08/00 A2994 RMK A01 T00780004  RH  059%=      5-min Rain = 0
KST3 191152Z 19006KT 08/00 A2994 RMK A01 T00780003  RH  059%=      5-min Rain = 0
KST3 191153Z 19006KT 08/00 A2994 RMK A01 T00790004  RH  059%=      5-min Rain = 0
KST3 191154Z 19006KT 08/00 A2994 RMK A01 T00800004  RH  059%=      5-min Rain = 0
KST3 191155Z 19006KT 08/01 A2994 RMK A01 T00810005  RH  058%=      5-min Rain = 0
KST3 191156Z 19006KT 08/01 A2994 RMK A01 T00820005  RH  058%=      5-min Rain = 0
KST3 191157Z 19006KT 08/01 A2994 RMK A01 T00820005  RH  058%=      5-min Rain = 0
KST3 191158Z 20005KT 08/01 A2995 RMK A01 T00830005  RH  058%=      5-min Rain = 0
KST3 191159Z 20005KT 08/01 A2995 RMK A01 T00840005  RH  058%=      5-min Rain = 0
KST3 191200Z 20005KT 08/01 A2995 RMK A01 T00840005  RH  057%=      5-min Rain = 0
KST3 191201Z 20006KT 08/00 A2995 RMK A01 T00840004  RH  057%=      5-min Rain = 0
KST3 191202Z 21005KT 08/00 A2995 RMK A01 T00830004  RH  058%=      5-min Rain = 0
KST3 191203Z 21005KT 08/01 A2995 RMK A01 T00830005  RH  058%=      5-min Rain = 0
KST3 191204Z 21005KT 08/01 A2995 RMK A01 T00820005  RH  058%=      5-min Rain = 0
KST3 191205Z 21005KT 08/00 A2995 RMK A01 T00800004  RH  058%=      5-min Rain = 0
KST3 191206Z 21005KT 08/00 A2995 RMK A01 T00790004  RH  059%=      5-min Rain = 0
KST3 191207Z 21005KT 08/00 A2995 RMK A01 T00780004  RH  059%=      5-min Rain = 0
KST3 191208Z 21006KT 08/00 A2995 RMK A01 T00780004  RH  060%=      5-min Rain = 0
KST3 191209Z 20006KT 08/00 A2995 RMK A01 T00780004  RH  060%=      5-min Rain = 0
KST3 191210Z 20006KT 08/01 A2995 RMK A01 T00780005  RH  060%=      5-min Rain = 0
KST3 191211Z 21006KT 08/01 A2995 RMK A01 T00780005  RH  060%=      5-min Rain = 0
KST3 191212Z 21006KT 08/01 A2995 RMK A01 T00790005  RH  060%=      5-min Rain = 0
KST3 191213Z 21006KT 08/01 A2995 RMK A01 T00790005  RH  059%=      5-min Rain = 0
KST3 191214Z 21006KT 08/01 A2995 RMK A01 T00790005  RH  059%=      5-min Rain = 0
KST3 191215Z 21006KT 08/01 A2995 RMK A01 T00780005  RH  060%=      5-min Rain = 0
KST3 191216Z 22006KT 08/01 A2994 RMK A01 T00780005  RH  060%=      5-min Rain = 0
KST3 191217Z 22006KT 08/00 A2994 RMK A01 T00780004  RH  060%=      5-min Rain = 0
KST3 191218Z 22005KT 08/01 A2994 RMK A01 T00780005  RH  060%=      5-min Rain = 0
KST3 191219Z 21006KT 08/00 A2994 RMK A01 T00770004  RH  060%=      5-min Rain = 0
KST3 191220Z 21006KT 08/00 A2994 RMK A01 T00770004  RH  060%=      5-min Rain = 0
KST3 191221Z 22006KT 08/00 A2994 RMK A01 T00760004  RH  060%=      5-min Rain = 0
KST3 191222Z 22006KT 08/00 A2994 RMK A01 T00760004  RH  060%=      5-min Rain = 0
KST3 191223Z 21006KT 08/00 A2994 RMK A01 T00760004  RH  060%=      5-min Rain = 0
KST3 191224Z 21006KT 08/00 A2994 RMK A01 T00760004  RH  060%=      5-min Rain = 0
KST3 191225Z 21006KT 08/00 A2994 RMK A01 T00750003  RH  060%=      5-min Rain = 0
KST3 191226Z 22006KT 07/00 A2994 RMK A01 T00740002  RH  061%=      5-min Rain = 0
KST3 191227Z 22006KT 07/00 A2994 RMK A01 T00730003  RH  061%=      5-min Rain = 0
KST3 191228Z 22006KT 07/00 A2994 RMK A01 T00710003  RH  062%=      5-min Rain = 0
KST3 191229Z 21006KT 07/00 A2994 RMK A01 T00710003  RH  062%=      5-min Rain = 0
KST3 191230Z 21006KT 07/00 A2995 RMK A01 T00700003  RH  062%=      5-min Rain = 0
KST3 191231Z 21006KT 07/00 A2995 RMK A01 T00690004  RH  063%=      5-min Rain = 0
KST3 191232Z 21006KT 07/00 A2994 RMK A01 T00690004  RH  063%=      5-min Rain = 0
KST3 191233Z 21006KT 07/00 A2994 RMK A01 T00690004  RH  063%=      5-min Rain = 0
KST3 191234Z 21006KT 07/00 A2994 RMK A01 T00690004  RH  063%=      5-min Rain = 0
KST3 191235Z 21006KT 07/01 A2994 RMK A01 T00690005  RH  064%=      5-min Rain = 0
KST3 191236Z 21006KT 07/01 A2994 RMK A01 T00690005  RH  064%=      5-min Rain = 0
KST3 191237Z 21007KT 07/01 A2994 RMK A01 T00690005  RH  064%=      5-min Rain = 0
KST3 191238Z 21007KT 07/01 A2994 RMK A01 T00690005  RH  063%=      5-min Rain = 0
KST3 191239Z 21007KT 07/01 A2994 RMK A01 T00690005  RH  064%=      5-min Rain = 0
KST3 191240Z 21007KT 07/01 A2994 RMK A01 T00680005  RH  064%=      5-min Rain = 0
KST3 191241Z 21007KT 07/01 A2994 RMK A01 T00680005  RH  064%=      5-min Rain = 0
KST3 191242Z 21007KT 07/01 A2994 RMK A01 T00670005  RH  064%=      5-min Rain = 0
KST3 191243Z 21007KT 07/01 A2994 RMK A01 T00670005  RH  065%=      5-min Rain = 0
KST3 191244Z 21007KT 07/01 A2994 RMK A01 T00670005  RH  065%=      5-min Rain = 0
KST3 191245Z 21007KT 07/01 A2994 RMK A01 T00660005  RH  065%=      5-min Rain = 0
KST3 191246Z 21007KT 07/01 A2994 RMK A01 T00650005  RH  065%=      5-min Rain = 0
KST3 191247Z 22007KT 07/01 A2994 RMK A01 T00650006  RH  066%=      5-min Rain = 0
KST3 191248Z 21008KT 07/01 A2994 RMK A01 T00650006  RH  066%=      5-min Rain = 0
KST3 191249Z 21008KT 07/01 A2994 RMK A01 T00660007  RH  066%=      5-min Rain = 0
KST3 191250Z 21008KT 07/01 A2994 RMK A01 T00660007  RH  066%=      5-min Rain = 0
KST3 191251Z 21008KT 07/01 A2994 RMK A01 T00670007  RH  066%=      5-min Rain = 0
KST3 191252Z 21008KT 07/01 A2994 RMK A01 T00670007  RH  066%=      5-min Rain = 0
KST3 191253Z 21008KT 07/01 A2994 RMK A01 T00660007  RH  066%=      5-min Rain = 0
KST3 191254Z 21008KT 07/01 A2994 RMK A01 T00650007  RH  066%=      5-min Rain = 0
KST3 191255Z 21008KT 06/01 A2994 RMK A01 T00640008  RH  067%=      5-min Rain = 0
KST3 191256Z 21008KT 06/01 A2994 RMK A01 T00640008  RH  067%=      5-min Rain = 0
KST3 191257Z 21008KT 06/01 A2994 RMK A01 T00640008  RH  067%=      5-min Rain = 0
KST3 191258Z 21008KT 06/01 A2994 RMK A01 T00640008  RH  067%=      5-min Rain = 0
KST3 191259Z 21008KT 06/01 A2994 RMK A01 T00640008  RH  067%=      5-min Rain = 0
KST3 191300Z 21009KT 07/01 A2994 RMK A01 T00650008  RH  067%=      5-min Rain = 0
KST3 191301Z 21009KT 07/01 A2994 RMK A01 T00650008  RH  067%=      5-min Rain = 0
KST3 191302Z 21009KT 07/01 A2994 RMK A01 T00650008  RH  067%=      5-min Rain = 0
KST3 191303Z 21009KT 07/01 A2994 RMK A01 T00660009  RH  067%=      5-min Rain = 0
KST3 191304Z 21009KT 07/01 A2994 RMK A01 T00650008  RH  067%=      5-min Rain = 0
KST3 191305Z 21009KT 07/01 A2994 RMK A01 T00650008  RH  067%=      5-min Rain = 0
KST3 191306Z 21009KT 06/01 A2994 RMK A01 T00640008  RH  067%=      5-min Rain = 0
KST3 191307Z 21009KT 06/01 A2994 RMK A01 T00640008  RH  067%=      5-min Rain = 0
KST3 191308Z 21009KT 06/01 A2994 RMK A01 T00630008  RH  067%=      5-min Rain = 0
KST3 191309Z 21009KT 06/01 A2994 RMK A01 T00630008  RH  068%=      5-min Rain = 0
KST3 191310Z 21009KT 06/01 A2994 RMK A01 T00630008  RH  068%=      5-min Rain = 0
KST3 191311Z 21009KT 06/01 A2994 RMK A01 T00620008  RH  068%=      5-min Rain = 0
KST3 191312Z 21009KT 06/01 A2994 RMK A01 T00610007  RH  068%=      5-min Rain = 0
KST3 191313Z 21009KT 06/01 A2994 RMK A01 T00610008  RH  069%=      5-min Rain = 0
KST3 191314Z 21009KT 06/01 A2994 RMK A01 T00600008  RH  069%=      5-min Rain = 0
KST3 191315Z 20009KT 06/01 A2994 RMK A01 T00600008  RH  069%=      5-min Rain = 0
KST3 191316Z 20009KT 06/01 A2994 RMK A01 T00600008  RH  069%=      5-min Rain = 0
KST3 191317Z 20009KT 06/01 A2994 RMK A01 T00610009  RH  069%=      5-min Rain = 0
KST3 191318Z 20009KT 06/01 A2994 RMK A01 T00610009  RH  069%=      5-min Rain = 0
KST3 191319Z 20009KT 06/01 A2994 RMK A01 T00620009  RH  069%=      5-min Rain = 0
KST3 191320Z 20009KT 06/01 A2994 RMK A01 T00620009  RH  069%=      5-min Rain = 0
KST3 191321Z 20009KT 06/01 A2994 RMK A01 T00630010  RH  069%=      5-min Rain = 0
KST3 191322Z 20009KT 06/01 A2994 RMK A01 T00630009  RH  069%=      5-min Rain = 0
KST3 191323Z 20009KT 06/01 A2994 RMK A01 T00630010  RH  068%=      5-min Rain = 0
KST3 191324Z 20009KT 06/01 A2994 RMK A01 T00630009  RH  068%=      5-min Rain = 0
KST3 191325Z 20009KT 06/01 A2994 RMK A01 T00630009  RH  068%=      5-min Rain = 0
KST3 191326Z 20009KT 06/01 A2994 RMK A01 T00630009  RH  068%=      5-min Rain = 0
KST3 191327Z 20008KT 06/01 A2994 RMK A01 T00630009  RH  068%=      5-min Rain = 0
KST3 191328Z 20008KT 06/01 A2994 RMK A01 T00630009  RH  068%=      5-min Rain = 0
KST3 191329Z 20008KT 06/01 A2994 RMK A01 T00620009  RH  068%=      5-min Rain = 0
KST3 191330Z 20009KT 06/01 A2994 RMK A01 T00620009  RH  068%=      5-min Rain = 0
KST3 191331Z 20009KT 06/01 A2994 RMK A01 T00630009  RH  068%=      5-min Rain = 0
KST3 191332Z 19009KT 07/01 A2994 RMK A01 T00650010  RH  068%=      5-min Rain = 0
KST3 191333Z 19008KT 07/01 A2993 RMK A01 T00670011  RH  067%=      5-min Rain = 0
KST3 191334Z 19009KT 07/01 A2994 RMK A01 T00690011  RH  067%=      5-min Rain = 0
KST3 191335Z 19009KT 07/01 A2994 RMK A01 T00700012  RH  066%=      5-min Rain = 0
KST3 191336Z 19009KT 07/01 A2993 RMK A01 T00720012  RH  066%=      5-min Rain = 0
KST3 191337Z 19008KT 07/01 A2993 RMK A01 T00730011  RH  065%=      5-min Rain = 0
KST3 191338Z 19008KT 07/01 A2993 RMK A01 T00730011  RH  065%=      5-min Rain = 0
KST3 191339Z 19008KT 07/01 A2993 RMK A01 T00730011  RH  065%=      5-min Rain = 0
KST3 191340Z 19008KT 07/01 A2993 RMK A01 T00730011  RH  065%=      5-min Rain = 0
KST3 191341Z 20008KT 07/01 A2993 RMK A01 T00720010  RH  065%=      5-min Rain = 0
KST3 191342Z 20008KT 07/01 A2993 RMK A01 T00710010  RH  065%=      5-min Rain = 0
KST3 191343Z 19008KT 07/01 A2993 RMK A01 T00710010  RH  065%=      5-min Rain = 0
KST3 191344Z 19008KT 07/01 A2993 RMK A01 T00710010  RH  065%=      5-min Rain = 0
KST3 191345Z 19008KT 07/01 A2993 RMK A01 T00710011  RH  065%=      5-min Rain = 0
KST3 191346Z 20008KT 07/01 A2993 RMK A01 T00720011  RH  065%=      5-min Rain = 0
KST3 191347Z 20008KT 07/01 A2993 RMK A01 T00720011  RH  065%=      5-min Rain = 0
KST3 191348Z 20009KT 07/01 A2993 RMK A01 T00720011  RH  065%=      5-min Rain = 0
KST3 191349Z 20009KT 07/01 A2993 RMK A01 T00730011  RH  065%=      5-min Rain = 0
KST3 191350Z 20009KT 07/01 A2993 RMK A01 T00730011  RH  065%=      5-min Rain = 0
KST3 191351Z 20009KT 07/01 A2993 RMK A01 T00740012  RH  065%=      5-min Rain = 0
KST3 191352Z 20009KT 08/01 A2993 RMK A01 T00750012  RH  064%=      5-min Rain = 0
KST3 191353Z 20009KT 08/01 A2993 RMK A01 T00750013  RH  064%=      5-min Rain = 0
KST3 191354Z 20009KT 08/01 A2993 RMK A01 T00760013  RH  064%=      5-min Rain = 0
KST3 191355Z 20009KT 08/01 A2993 RMK A01 T00760013  RH  064%=      5-min Rain = 0
KST3 191356Z 20009KT 08/01 A2993 RMK A01 T00770014  RH  064%=      5-min Rain = 0
KST3 191357Z 20009KT 08/01 A2994 RMK A01 T00770013  RH  064%=      5-min Rain = 0
KST3 191358Z 20009KT 08/01 A2994 RMK A01 T00770014  RH  064%=      5-min Rain = 0
KST3 191359Z 21008KT 08/01 A2994 RMK A01 T00760014  RH  065%=      5-min Rain = 0
KST3 191400Z 21008KT 08/01 A2994 RMK A01 T00760014  RH  065%=      5-min Rain = 0
KST3 191401Z 21008KT 08/02 A2994 RMK A01 T00760015  RH  065%=      5-min Rain = 0
KST3 191402Z 20009KT 08/02 A2994 RMK A01 T00750015  RH  066%=      5-min Rain = 0
KST3 191403Z 21008KT 08/02 A2994 RMK A01 T00750015  RH  066%=      5-min Rain = 0
KST3 191404Z 21008KT 08/02 A2994 RMK A01 T00750015  RH  066%=      5-min Rain = 0
KST3 191405Z 21008KT 08/02 A2994 RMK A01 T00750015  RH  066%=      5-min Rain = 0
KST3 191406Z 21008KT 08/02 A2994 RMK A01 T00750016  RH  066%=      5-min Rain = 0
KST3 191407Z 21008KT 08/02 A2994 RMK A01 T00750016  RH  066%=      5-min Rain = 0
KST3 191408Z 21007KT 08/02 A2994 RMK A01 T00750016  RH  066%=      5-min Rain = 0
KST3 191409Z 20007KT 08/02 A2994 RMK A01 T00750016  RH  066%=      5-min Rain = 0
KST3 191410Z 20007KT 08/02 A2994 RMK A01 T00760016  RH  066%=      5-min Rain = 0
KST3 191411Z 20007KT 08/02 A2994 RMK A01 T00760017  RH  066%=      5-min Rain = 0
KST3 191412Z 20008KT 08/02 A2994 RMK A01 T00780017  RH  065%=      5-min Rain = 0
KST3 191413Z 20008KT 08/02 A2994 RMK A01 T00790017  RH  065%=      5-min Rain = 0
KST3 191414Z 19007KT 08/02 A2994 RMK A01 T00810017  RH  064%=      5-min Rain = 0
KST3 191415Z 19007KT 08/02 A2994 RMK A01 T00830018  RH  063%=      5-min Rain = 0
KST3 191416Z 19007KT 08/02 A2994 RMK A01 T00840017  RH  063%=      5-min Rain = 0
KST3 191417Z 19007KT 09/02 A2994 RMK A01 T00850017  RH  062%=      5-min Rain = 0
KST3 191418Z 19006KT 09/02 A2994 RMK A01 T00860018  RH  062%=      5-min Rain = 0
KST3 191419Z 19007KT 09/02 A2994 RMK A01 T00870018  RH  062%=      5-min Rain = 0
KST3 191420Z 19007KT 09/02 A2994 RMK A01 T00880018  RH  062%=      5-min Rain = 0
KST3 191421Z 20007KT 09/02 A2994 RMK A01 T00880018  RH  061%=      5-min Rain = 0
KST3 191422Z 20006KT 09/02 A2994 RMK A01 T00890018  RH  061%=      5-min Rain = 0
KST3 191423Z 20006KT 09/02 A2994 RMK A01 T00890018  RH  061%=      5-min Rain = 0
KST3 191424Z 19006KT 09/02 A2993 RMK A01 T00890019  RH  061%=      5-min Rain = 0
KST3 191425Z 19006KT 09/02 A2993 RMK A01 T00900019  RH  061%=      5-min Rain = 0
KST3 191426Z 19006KT 09/02 A2993 RMK A01 T00900018  RH  061%=      5-min Rain = 0
KST3 191427Z 19006KT 09/02 A2993 RMK A01 T00910018  RH  060%=      5-min Rain = 0
KST3 191428Z 20006KT 09/02 A2993 RMK A01 T00920018  RH  060%=      5-min Rain = 0
KST3 191429Z 20006KT 09/02 A2994 RMK A01 T00920019  RH  060%=      5-min Rain = 0
KST3 191430Z 20006KT 09/02 A2994 RMK A01 T00930019  RH  060%=      5-min Rain = 0
KST3 191431Z 20006KT 09/02 A2994 RMK A01 T00930019  RH  060%=      5-min Rain = 0
KST3 191432Z 20007KT 09/02 A2994 RMK A01 T00940020  RH  060%=      5-min Rain = 0
KST3 191433Z 20006KT 10/02 A2994 RMK A01 T00950020  RH  059%=      5-min Rain = 0
KST3 191434Z 20006KT 10/02 A2994 RMK A01 T00950020  RH  059%=      5-min Rain = 0
KST3 191435Z 20006KT 10/02 A2994 RMK A01 T00960021  RH  059%=      5-min Rain = 0
KST3 191436Z 19006KT 10/02 A2994 RMK A01 T00960020  RH  059%=      5-min Rain = 0
KST3 191437Z 19005KT 10/02 A2994 RMK A01 T00970020  RH  059%=      5-min Rain = 0
KST3 191438Z 19006KT 10/02 A2994 RMK A01 T00980021  RH  059%=      5-min Rain = 0
KST3 191439Z 19006KT 10/02 A2994 RMK A01 T00990021  RH  058%=      5-min Rain = 0
KST3 191440Z 19006KT 10/02 A2994 RMK A01 T00990020  RH  058%=      5-min Rain = 0
KST3 191441Z 19006KT 10/02 A2993 RMK A01 T00990021  RH  058%=      5-min Rain = 0
KST3 191442Z 19006KT 10/02 A2993 RMK A01 T01000020  RH  058%=      5-min Rain = 0
KST3 191443Z 19006KT 10/02 A2993 RMK A01 T01000020  RH  057%=      5-min Rain = 0
KST3 191444Z 19007KT 10/02 A2993 RMK A01 T01010019  RH  057%=      5-min Rain = 0
KST3 191445Z 19007KT 10/02 A2993 RMK A01 T01010019  RH  057%=      5-min Rain = 0
KST3 191446Z 19007KT 10/02 A2993 RMK A01 T01020019  RH  056%=      5-min Rain = 0
KST3 191447Z 20006KT 10/02 A2993 RMK A01 T01020018  RH  056%=      5-min Rain = 0
KST3 191448Z 20005KT 10/02 A2993 RMK A01 T01030019  RH  056%=      5-min Rain = 0
KST3 191449Z 20006KT 10/02 A2993 RMK A01 T01030020  RH  056%=      5-min Rain = 0
KST3 191450Z 20007KT 10/02 A2993 RMK A01 T01040019  RH  056%=      5-min Rain = 0
KST3 191451Z 20006KT 10/02 A2993 RMK A01 T01040018  RH  055%=      5-min Rain = 0
KST3 191452Z 20005KT 11/02 A2993 RMK A01 T01050017  RH  054%=      5-min Rain = 0
KST3 191453Z 20006KT 11/02 A2993 RMK A01 T01060017  RH  054%=      5-min Rain = 0
KST3 191454Z 20007KT 11/02 A2993 RMK A01 T01060017  RH  054%=      5-min Rain = 0
KST3 191455Z 20008KT 11/01 A2993 RMK A01 T01070014  RH  053%=      5-min Rain = 0
KST3 191456Z 20007KT 11/02 A2993 RMK A01 T01080015  RH  053%=      5-min Rain = 0
KST3 191457Z 20007KT 11/02 A2993 RMK A01 T01090016  RH  053%=      5-min Rain = 0
KST3 191458Z 20008KT 11/02 A2993 RMK A01 T01100015  RH  052%=      5-min Rain = 0
KST3 191459Z 20007KT 11/02 A2993 RMK A01 T01110015  RH  052%=      5-min Rain = 0
KST3 191500Z 20006KT 11/02 A2993 RMK A01 T01130017  RH  052%=      5-min Rain = 0
KST3 191501Z 20007KT 11/02 A2993 RMK A01 T01140017  RH  051%=      5-min Rain = 0
KST3 191502Z 20006KT 12/02 A2993 RMK A01 T01150018  RH  051%=      5-min Rain = 0
KST3 191503Z 20009KT 12/02 A2993 RMK A01 T01170017  RH  050%=      5-min Rain = 0
KST3 191504Z 20007KT 12/02 A2993 RMK A01 T01170015  RH  049%=      5-min Rain = 0
KST3 191505Z 20008KT 12/01 A2993 RMK A01 T01180014  RH  049%=      5-min Rain = 0
KST3 191506Z 20007KT 12/01 A2993 RMK A01 T01190014  RH  049%=      5-min Rain = 0
KST3 191507Z 19008KT 12/02 A2993 RMK A01 T01210015  RH  048%=      5-min Rain = 0
KST3 191508Z 20008KT 12/01 A2993 RMK A01 T01220013  RH  047%=      5-min Rain = 0
KST3 191509Z 19009KT 12/01 A2993 RMK A01 T01240013  RH  047%=      5-min Rain = 0
KST3 191510Z 19009KT 12/01 A2993 RMK A01 T01240010  RH  045%=      5-min Rain = 0
KST3 191511Z 20008KT 12/01 A2993 RMK A01 T01240011  RH  046%=      5-min Rain = 0
KST3 191512Z 19009KT 13/01 A2993 RMK A01 T01250010  RH  045%=      5-min Rain = 0
KST3 191513Z 19009KT 13/01 A2993 RMK A01 T01250009  RH  045%=      5-min Rain = 0
KST3 191514Z 19009KT 13/01 A2993 RMK A01 T01250009  RH  045%=      5-min Rain = 0
KST3 191515Z 20008KT 13/01 A2993 RMK A01 T01250008  RH  045%=      5-min Rain = 0
KST3 191516Z 19010KT 13/01 A2993 RMK A01 T01250008  RH  045%=      5-min Rain = 0
KST3 191517Z 19009KT 13/01 A2993 RMK A01 T01250008  RH  045%=      5-min Rain = 0
KST3 191518Z 19010KT 13/01 A2993 RMK A01 T01250008  RH  045%=      5-min Rain = 0
KST3 191519Z 19008KT 13/01 A2993 RMK A01 T01250008  RH  045%=      5-min Rain = 0
KST3 191520Z 19008KT 13/01 A2993 RMK A01 T01260010  RH  045%=      5-min Rain = 0
KST3 191521Z 19007KT 13/01 A2993 RMK A01 T01280011  RH  045%=      5-min Rain = 0
KST3 191522Z 18008KT 13/01 A2993 RMK A01 T01290011  RH  044%=      5-min Rain = 0
KST3 191523Z 18008KT 13/01 A2993 RMK A01 T01300009  RH  044%=      5-min Rain = 0
KST3 191524Z 18009KT 13/01 A2993 RMK A01 T01300008  RH  043%=      5-min Rain = 0
KST3 191525Z 18006KT 13/01 A2993 RMK A01 T01300010  RH  044%=      5-min Rain = 0
KST3 191526Z 18009KT 13/01 A2993 RMK A01 T01320011  RH  044%=      5-min Rain = 0
KST3 191527Z 18010KT 13/01 A2993 RMK A01 T01320008  RH  043%=      5-min Rain = 0
KST3 191528Z 17011KT 13/01 A2993 RMK A01 T01310007  RH  043%=      5-min Rain = 0
KST3 191529Z 17010KT 13/01 A2993 RMK A01 T01310007  RH  043%=      5-min Rain = 0
KST3 191530Z 18008KT 13/01 A2993 RMK A01 T01310007  RH  043%=      5-min Rain = 0
KST3 191531Z 18009KT 13/01 A2993 RMK A01 T01320009  RH  043%=      5-min Rain = 0
KST3 191532Z 18008KT 13/01 A2993 RMK A01 T01330008  RH  042%=      5-min Rain = 0
KST3 191533Z 18007KT 13/01 A2993 RMK A01 T01330008  RH  042%=      5-min Rain = 0
KST3 191534Z 18007KT 13/01 A2993 RMK A01 T01330010  RH  043%=      5-min Rain = 0
KST3 191535Z 18008KT 14/01 A2993 RMK A01 T01350010  RH  043%=      5-min Rain = 0
KST3 191536Z 18009KT 14/01 A2993 RMK A01 T01350007  RH  042%=      5-min Rain = 0
KST3 191537Z 18009KT 13/01 A2993 RMK A01 T01320006  RH  042%=      5-min Rain = 0
KST3 191538Z 18008KT 13/01 A2993 RMK A01 T01320006  RH  042%=      5-min Rain = 0
KST3 191539Z 18008KT 13/01 A2993 RMK A01 T01320008  RH  043%=      5-min Rain = 0
KST3 191540Z 18009KT 13/01 A2993 RMK A01 T01330009  RH  043%=      5-min Rain = 0
KST3 191541Z 18006KT 14/01 A2993 RMK A01 T01350010  RH  043%=      5-min Rain = 0
KST3 191542Z 18006KT 14/01 A2993 RMK A01 T01370011  RH  042%=      5-min Rain = 0
KST3 191543Z 18008KT 14/01 A2993 RMK A01 T01370009  RH  042%=      5-min Rain = 0
KST3 191544Z 18008KT 14/01 A2993 RMK A01 T01380009  RH  041%=      5-min Rain = 0
KST3 191545Z 18008KT 14/01 A2993 RMK A01 T01390010  RH  041%=      5-min Rain = 0
KST3 191546Z 17009KT 14/01 A2993 RMK A01 T01400010  RH  041%=      5-min Rain = 0
KST3 191547Z 18009KT 14/01 A2993 RMK A01 T01400010  RH  041%=      5-min Rain = 0
KST3 191548Z 17010KT 14/01 A2993 RMK A01 T01410010  RH  041%=      5-min Rain = 0
KST3 191549Z 18009KT 14/01 A2993 RMK A01 T01420010  RH  041%=      5-min Rain = 0
KST3 191550Z 18007KT 14/01 A2993 RMK A01 T01410009  RH  040%=      5-min Rain = 0
KST3 191551Z 18009KT 14/01 A2993 RMK A01 T01410010  RH  041%=      5-min Rain = 0
KST3 191552Z 18007KT 14/01 A2993 RMK A01 T01420010  RH  041%=      5-min Rain = 0
KST3 191553Z 18007KT 14/01 A2993 RMK A01 T01440012  RH  041%=      5-min Rain = 0
KST3 191554Z 19010KT 15/01 A2993 RMK A01 T01460013  RH  040%=      5-min Rain = 0
KST3 191555Z 18008KT 15/01 A2993 RMK A01 T01470011  RH  040%=      5-min Rain = 0
KST3 191556Z 18008KT 15/01 A2993 RMK A01 T01450011  RH  040%=      5-min Rain = 0
KST3 191557Z 18008KT 15/01 A2993 RMK A01 T01450012  RH  040%=      5-min Rain = 0
KST3 191558Z 17008KT 15/01 A2993 RMK A01 T01450011  RH  040%=      5-min Rain = 0
KST3 191559Z 18008KT 15/01 A2993 RMK A01 T01450011  RH  040%=      5-min Rain = 0
KST3 191600Z 18008KT 15/01 A2993 RMK A01 T01460013  RH  040%=      5-min Rain = 0
KST3 191601Z 17007KT 15/01 A2993 RMK A01 T01470013  RH  040%=      5-min Rain = 0
KST3 191602Z 17008KT 15/01 A2993 RMK A01 T01480013  RH  040%=      5-min Rain = 0
KST3 191603Z 17007KT 15/01 A2993 RMK A01 T01490013  RH  040%=      5-min Rain = 0
KST3 191604Z 17008KT 15/01 A2993 RMK A01 T01500014  RH  040%=      5-min Rain = 0
KST3 191605Z 17009KT 15/01 A2993 RMK A01 T01520014  RH  039%=      5-min Rain = 0
KST3 191606Z 17009KT 15/01 A2993 RMK A01 T01510011  RH  039%=      5-min Rain = 0
KST3 191607Z 18011KT 15/01 A2993 RMK A01 T01500011  RH  039%=      5-min Rain = 0
KST3 191608Z 18010KT 15/01 A2993 RMK A01 T01500011  RH  039%=      5-min Rain = 0
KST3 191609Z 18010KT 15/01 A2993 RMK A01 T01510012  RH  039%=      5-min Rain = 0
KST3 191610Z 17011KT 15/01 A2993 RMK A01 T01520012  RH  039%=      5-min Rain = 0
KST3 191611Z 17011KT 15/01 A2993 RMK A01 T01520012  RH  038%=      5-min Rain = 0
KST3 191612Z 17010KT 15/01 A2993 RMK A01 T01530012  RH  038%=      5-min Rain = 0
KST3 191613Z 18011KT 16/01 A2993 RMK A01 T01550013  RH  038%=      5-min Rain = 0
KST3 191614Z 17011KT 16/01 A2993 RMK A01 T01550012  RH  038%=      5-min Rain = 0
KST3 191615Z 17010KT 15/01 A2993 RMK A01 T01540012  RH  038%=      5-min Rain = 0
KST3 191616Z 17010KT 16/02 A2993 RMK A01 T01560015  RH  038%=      5-min Rain = 0
KST3 191617Z 18008KT 16/01 A2993 RMK A01 T01570013  RH  038%=      5-min Rain = 0
KST3 191618Z 18008KT 16/02 A2993 RMK A01 T01580015  RH  038%=      5-min Rain = 0
KST3 191619Z 18008KT 16/01 A2992 RMK A01 T01590014  RH  038%=      5-min Rain = 0
KST3 191620Z 17010KT 16/01 A2992 RMK A01 T01600014  RH  037%=      5-min Rain = 0
KST3 191621Z 17009KT 16/01 A2992 RMK A01 T01610014  RH  037%=      5-min Rain = 0
KST3 191622Z 17010KT 16/01 A2992 RMK A01 T01610014  RH  037%=      5-min Rain = 0
KST3 191623Z 17010KT 16/01 A2992 RMK A01 T01610014  RH  037%=      5-min Rain = 0
KST3 191624Z 17009KT 16/01 A2992 RMK A01 T01610014  RH  037%=      5-min Rain = 0
KST3 191625Z 17010KT 16/01 A2992 RMK A01 T01620014  RH  037%=      5-min Rain = 0
KST3 191626Z 17011KT 16/01 A2992 RMK A01 T01630013  RH  036%=      5-min Rain = 0
KST3 191627Z 18011KT 16/01 A2992 RMK A01 T01630013  RH  036%=      5-min Rain = 0
KST3 191628Z 17008KT 16/01 A2992 RMK A01 T01630014  RH  036%=      5-min Rain = 0
KST3 191629Z 18010KT 17/02 A2992 RMK A01 T01660017  RH  037%=      5-min Rain = 0
KST3 191630Z 18010KT 17/01 A2992 RMK A01 T01670013  RH  035%=      5-min Rain = 0
KST3 191631Z 17008KT 17/01 A2992 RMK A01 T01670014  RH  036%=      5-min Rain = 0
KST3 191632Z 18010KT 17/02 A2992 RMK A01 T01690016  RH  036%=      5-min Rain = 0
KST3 191633Z 18011KT 17/02 A2992 RMK A01 T01710015  RH  035%=      5-min Rain = 0
KST3 191634Z 18009KT 17/02 A2992 RMK A01 T01700015  RH  035%=      5-min Rain = 0
KST3 191635Z 17008KT 17/02 A2992 RMK A01 T01720017  RH  035%=      5-min Rain = 0
KST3 191636Z 17010KT 17/02 A2992 RMK A01 T01740017  RH  035%=      5-min Rain = 0
KST3 191637Z 18011KT 18/02 A2992 RMK A01 T01750015  RH  034%=      5-min Rain = 0
KST3 191638Z 18009KT 17/01 A2992 RMK A01 T01730013  RH  034%=      5-min Rain = 0
KST3 191639Z 18008KT 17/02 A2992 RMK A01 T01730015  RH  034%=      5-min Rain = 0
KST3 191640Z 18011KT 18/02 A2992 RMK A01 T01750015  RH  034%=      5-min Rain = 0
KST3 191641Z 17012KT 18/01 A2991 RMK A01 T01750012  RH  033%=      5-min Rain = 0
KST3 191642Z 17011KT 18/01 A2991 RMK A01 T01750013  RH  034%=      5-min Rain = 0
KST3 191643Z 18012KT 18/01 A2991 RMK A01 T01760014  RH  034%=      5-min Rain = 0
KST3 191644Z 17011KT 18/01 A2991 RMK A01 T01760013  RH  033%=      5-min Rain = 0
KST3 191645Z 17009KT 18/01 A2991 RMK A01 T01760013  RH  033%=      5-min Rain = 0
KST3 191646Z 18010KT 18/01 A2991 RMK A01 T01770013  RH  033%=      5-min Rain = 0
KST3 191647Z 18010KT 18/01 A2991 RMK A01 T01770014  RH  033%=      5-min Rain = 0
KST3 191648Z 17012KT 18/01 A2991 RMK A01 T01790014  RH  033%=      5-min Rain = 0
KST3 191649Z 16014G19KT 18/01 A2991 RMK A01 T01810012  RH  032%=      5-min Rain = 0
KST3 191650Z 16015KT 18/01 A2991 RMK A01 T01820011  RH  032%=      5-min Rain = 0
KST3 191651Z 17014KT 18/01 A2991 RMK A01 T01820011  RH  032%=      5-min Rain = 0
KST3 191652Z 17013KT 18/01 A299 RMK A01 T01820010  RH  031%=      5-min Rain = 0
KST3 191653Z 17012KT 18/01 A2991 RMK A01 T01840012  RH  032%=      5-min Rain = 0
KST3 191654Z 17015KT 19/01 A299 RMK A01 T01860012  RH  031%=      5-min Rain = 0
KST3 191655Z 18012KT 19/01 A299 RMK A01 T01870012  RH  031%=      5-min Rain = 0
KST3 191656Z 16014KT 19/01 A299 RMK A01 T01870012  RH  031%=      5-min Rain = 0
KST3 191657Z 17015KT 19/01 A299 RMK A01 T01870011  RH  031%=      5-min Rain = 0
KST3 191658Z 16014KT 19/01 A299 RMK A01 T01870011  RH  031%=      5-min Rain = 0
KST3 191659Z 16014KT 19/01 A299 RMK A01 T01870012  RH  031%=      5-min Rain = 0
KST3 191700Z 17015KT 19/01 A299 RMK A01 T01880011  RH  031%=      5-min Rain = 0
KST3 191701Z 17013KT 19/01 A299 RMK A01 T01890011  RH  030%=      5-min Rain = 0
KST3 191702Z 16012KT 19/01 A299 RMK A01 T01900011  RH  030%=      5-min Rain = 0
KST3 191703Z 17011KT 19/01 A299 RMK A01 T01910011  RH  030%=      5-min Rain = 0
KST3 191704Z 17014KT 19/01 A299 RMK A01 T01930012  RH  030%=      5-min Rain = 0
KST3 191705Z 16015G23KT 20/01 A299 RMK A01 T01950011  RH  029%=      5-min Rain = 0
KST3 191706Z 17018G23KT 20/01 A2989 RMK A01 T01970006  RH  028%=      5-min Rain = 0
KST3 191707Z 18017KT 20/00 A2989 RMK A01 T01980004  RH  027%=      5-min Rain = 0
KST3 191708Z 18019KT 20/00 A2989 RMK A01 T02000003  RH  027%=      5-min Rain = 0
KST3 191709Z 18023KT 20/00 A2989 RMK A01 T02000001  RH  026%=      5-min Rain = 0
KST3 191710Z 18019G24KT 20/00 A2989 RMK A01 T02000001  RH  026%=      5-min Rain = 0
KST3 191711Z 17019KT 20/00 A2989 RMK A01 T02010001  RH  026%=      5-min Rain = 0
KST3 191712Z 16016G21KT 20/00 A2989 RMK A01 T02020002  RH  026%=      5-min Rain = 0
KST3 191713Z 17020G26KT 20/00 A2989 RMK A01 T02030002  RH  026%=      5-min Rain = 0
KST3 191714Z 17018KT 20/00 A2989 RMK A01 T02040002  RH  026%=      5-min Rain = 0
KST3 191715Z 17017KT 21/00 A2989 RMK A01 T02050003  RH  026%=      5-min Rain = 0
KST3 191716Z 18018G23KT 21/00 A2989 RMK A01 T02070002  RH  025%=      5-min Rain = 0
KST3 191717Z 18016KT 21/00 A2989 RMK A01 T02080001  RH  025%=      5-min Rain = 0
KST3 191718Z 18020G25KT 21/00 A2989 RMK A01 T02070000  RH  025%=      5-min Rain = 0
KST3 191719Z 18018KT 21/M00 A2988 RMK A01 T02061001  RH  025%=      5-min Rain = 0
KST3 191720Z 18019KT 21/00 A2989 RMK A01 T020700-0  RH  025%=      5-min Rain = 0
KST3 191721Z 17016G21KT 21/M00 A2989 RMK A01 T02081001  RH  025%=      5-min Rain = 0
KST3 191722Z 17014KT 21/00 A2989 RMK A01 T02090001  RH  025%=      5-min Rain = 0
KST3 191723Z 17020KT 21/00 A2988 RMK A01 T02110001  RH  025%=      5-min Rain = 0
KST3 191724Z 18019G25KT 21/M00 A2988 RMK A01 T02111001  RH  024%=      5-min Rain = 0
KST3 191725Z 18020KT 21/M00 A2988 RMK A01 T02111001  RH  024%=      5-min Rain = 0
KST3 191726Z 17021KT 21/M00 A2988 RMK A01 T02101001  RH  024%=      5-min Rain = 0
KST3 191727Z 18020KT 21/M00 A2988 RMK A01 T02091002  RH  024%=      5-min Rain = 0
KST3 191728Z 18019KT 21/M00 A2988 RMK A01 T02091001  RH  025%=      5-min Rain = 0
KST3 191729Z 17019KT 21/M00 A2988 RMK A01 T02101001  RH  024%=      5-min Rain = 0
KST3 191730Z 17018KT 21/M00 A2988 RMK A01 T02111002  RH  024%=      5-min Rain = 0
KST3 191731Z 17019KT 21/M00 A2988 RMK A01 T02111002  RH  024%=      5-min Rain = 0
KST3 191732Z 18018KT 21/M00 A2988 RMK A01 T02111002  RH  024%=      5-min Rain = 0
KST3 191733Z 18018KT 21/M00 A2988 RMK A01 T02111001  RH  024%=      5-min Rain = 0
KST3 191734Z 19016G21KT 21/M00 A2988 RMK A01 T02131001  RH  024%=      5-min Rain = 0
KST3 191735Z 18015KT 21/M00 A2988 RMK A01 T02131001  RH  024%=      5-min Rain = 0
KST3 191736Z 18015KT 22/M00 A2988 RMK A01 T02151001  RH  024%=      5-min Rain = 0
KST3 191737Z 17017G22KT 22/M00 A2988 RMK A01 T02161001  RH  024%=      5-min Rain = 0
KST3 191738Z 18014KT 22/M00 A2988 RMK A01 T02171002  RH  023%=      5-min Rain = 0
KST3 191739Z 18014KT 22/M00 A2988 RMK A01 T02181002  RH  023%=      5-min Rain = 0
KST3 191740Z 19017G22KT 22/M00 A2988 RMK A01 T02201001  RH  023%=      5-min Rain = 0
KST3 191741Z 19021KT 22/M00 A2988 RMK A01 T02201004  RH  023%=      5-min Rain = 0
KST3 191742Z 18018G23KT 22/M01 A2987 RMK A01 T02171005  RH  023%=      5-min Rain = 0
KST3 191743Z 19016KT 22/M00 A2987 RMK A01 T02161004  RH  023%=      5-min Rain = 0
KST3 191744Z 18016G21KT 22/M00 A2987 RMK A01 T02181003  RH  023%=      5-min Rain = 0
KST3 191745Z 19018KT 22/M00 A2987 RMK A01 T02201004  RH  022%=      5-min Rain = 0
KST3 191746Z 20021KT 22/M01 A2987 RMK A01 T02211007  RH  022%=      5-min Rain = 0
KST3 191747Z 20020G27KT 22/M01 A2987 RMK A01 T02211008  RH  022%=      5-min Rain = 0
KST3 191748Z 20021G28KT 22/M01 A2987 RMK A01 T02221007  RH  022%=      5-min Rain = 0
KST3 191749Z 19025KT 22/M01 A2987 RMK A01 T02211011  RH  021%=      5-min Rain = 0
KST3 191750Z 19023KT 22/M01 A2987 RMK A01 T02171013  RH  021%=      5-min Rain = 0
KST3 191751Z 19024KT 22/M01 A2987 RMK A01 T02151013  RH  022%=      5-min Rain = 0
KST3 191752Z 19021KT 21/M01 A2987 RMK A01 T02141011  RH  022%=      5-min Rain = 0
KST3 191753Z 20022G27KT 22/M01 A2987 RMK A01 T02151009  RH  022%=      5-min Rain = 0
KST3 191754Z 19021KT 22/M01 A2987 RMK A01 T02161008  RH  022%=      5-min Rain = 0
KST3 191755Z 19022KT 22/M01 A2987 RMK A01 T02181005  RH  023%=      5-min Rain = 0
KST3 191756Z 19023KT 22/M01 A2987 RMK A01 T02181005  RH  023%=      5-min Rain = 0
KST3 191757Z 19024KT 22/M01 A2986 RMK A01 T02181005  RH  023%=      5-min Rain = 0
KST3 191758Z 20020KT 22/M00 A2987 RMK A01 T02181004  RH  023%=      5-min Rain = 0
KST3 191759Z 19023KT 22/M00 A2986 RMK A01 T02191003  RH  023%=      5-min Rain = 0
KST3 191800Z 18019KT 22/M00 A2986 RMK A01 T02191004  RH  023%=      5-min Rain = 0
KST3 191801Z 19019KT 22/M00 A2986 RMK A01 T02201003  RH  023%=      5-min Rain = 0
KST3 191802Z 18020G25KT 22/M00 A2986 RMK A01 T02211004  RH  022%=      5-min Rain = 0
KST3 191803Z 18021G26KT 22/M00 A2986 RMK A01 T02221003  RH  022%=      5-min Rain = 0
KST3 191804Z 19020G25KT 22/M00 A2986 RMK A01 T02221003  RH  022%=      5-min Rain = 0
KST3 191805Z 18021KT 22/M00 A2986 RMK A01 T02221002  RH  022%=      5-min Rain = 0
KST3 191806Z 18021KT 22/M00 A2986 RMK A01 T02211003  RH  022%=      5-min Rain = 0
KST3 191807Z 18020KT 22/M01 A2986 RMK A01 T02201005  RH  022%=      5-min Rain = 0
KST3 191808Z 18018KT 22/M00 A2986 RMK A01 T02201004  RH  022%=      5-min Rain = 0
KST3 191809Z 19020G27KT 22/M00 A2986 RMK A01 T02221003  RH  022%=      5-min Rain = 0
KST3 191810Z 19019KT 22/M00 A2986 RMK A01 T02231001  RH  023%=      5-min Rain = 0
KST3 191811Z 19021KT 22/M00 A2986 RMK A01 T02231001  RH  023%=      5-min Rain = 0
KST3 191812Z 18018G23KT 22/M00 A2985 RMK A01 T02211002  RH  023%=      5-min Rain = 0
KST3 191813Z 18018G23KT 22/00 A2985 RMK A01 T02230001  RH  023%=      5-min Rain = 0
KST3 191814Z 18020KT 23/00 A2985 RMK A01 T022500-0  RH  022%=      5-min Rain = 0
KST3 191815Z 18019G25KT 23/00 A2985 RMK A01 T02250000  RH  022%=      5-min Rain = 0
KST3 191816Z 18017G23KT 23/00 A2985 RMK A01 T02250000  RH  023%=      5-min Rain = 0
KST3 191817Z 18021KT 22/00 A2985 RMK A01 T022400-0  RH  023%=      5-min Rain = 0
KST3 191818Z 17020KT 22/00 A2985 RMK A01 T02230000  RH  023%=      5-min Rain = 0
KST3 191819Z 18018KT 22/00 A2985 RMK A01 T02220001  RH  023%=      5-min Rain = 0
KST3 191820Z 18019G24KT 22/00 A2985 RMK A01 T02240002  RH  023%=      5-min Rain = 0
KST3 191821Z 18018KT 22/00 A2985 RMK A01 T02240000  RH  023%=      5-min Rain = 0
KST3 191822Z 18018KT 22/00 A2985 RMK A01 T02220001  RH  023%=      5-min Rain = 0
KST3 191823Z 18015KT 22/00 A2985 RMK A01 T02220002  RH  023%=      5-min Rain = 0
KST3 191824Z 19017G22KT 23/00 A2985 RMK A01 T02260004  RH  023%=      5-min Rain = 0
KST3 191825Z 18021KT 23/00 A2985 RMK A01 T02260002  RH  023%=      5-min Rain = 0
KST3 191826Z 18017KT 22/00 A2985 RMK A01 T02230001  RH  023%=      5-min Rain = 0
KST3 191827Z 18018G23KT 22/00 A2985 RMK A01 T02230003  RH  023%=      5-min Rain = 0
KST3 191828Z 18018G23KT 22/00 A2985 RMK A01 T02240004  RH  023%=      5-min Rain = 0
KST3 191829Z 17019KT 23/00 A2985 RMK A01 T02250004  RH  023%=      5-min Rain = 0
KST3 191830Z 18020G25KT 22/00 A2984 RMK A01 T02240004  RH  023%=      5-min Rain = 0
KST3 191831Z 18019KT 23/00 A2984 RMK A01 T02250004  RH  023%=      5-min Rain = 0
KST3 191832Z 19017KT 22/00 A2984 RMK A01 T02240004  RH  023%=      5-min Rain = 0
KST3 191833Z 19018KT 22/01 A2984 RMK A01 T02240006  RH  024%=      5-min Rain = 0
KST3 191834Z 18020G25KT 23/01 A2984 RMK A01 T02250006  RH  023%=      5-min Rain = 0
KST3 191835Z 19017KT 22/01 A2984 RMK A01 T02240005  RH  023%=      5-min Rain = 0
KST3 191836Z 19018KT 22/01 A2984 RMK A01 T02230005  RH  024%=      5-min Rain = 0
KST3 191837Z 19016KT 23/01 A2984 RMK A01 T02250008  RH  024%=      5-min Rain = 0
KST3 191838Z 19014G20KT 23/01 A2984 RMK A01 T02280008  RH  023%=      5-min Rain = 0
KST3 191839Z 18016KT 23/01 A2984 RMK A01 T02290008  RH  023%=      5-min Rain = 0
KST3 191840Z 19019G24KT 23/01 A2984 RMK A01 T02290008  RH  023%=      5-min Rain = 0
KST3 191841Z 20017G22KT 23/01 A2984 RMK A01 T02280006  RH  023%=      5-min Rain = 0
KST3 191842Z 19017KT 23/01 A2984 RMK A01 T02280006  RH  023%=      5-min Rain = 0
KST3 191843Z 20020G27KT 23/01 A2984 RMK A01 T02280006  RH  023%=      5-min Rain = 0
KST3 191844Z 20022KT 23/00 A2984 RMK A01 T02270003  RH  023%=      5-min Rain = 0
KST3 191845Z 20021KT 22/00 A2984 RMK A01 T02230003  RH  023%=      5-min Rain = 0
KST3 191846Z 20018KT 22/00 A2984 RMK A01 T02210003  RH  023%=      5-min Rain = 0
KST3 191847Z 19018G23KT 22/00 A2984 RMK A01 T02200004  RH  024%=      5-min Rain = 0
KST3 191848Z 19021G26KT 22/00 A2983 RMK A01 T02200004  RH  024%=      5-min Rain = 0
KST3 191849Z 20022KT 22/00 A2983 RMK A01 T02200004  RH  024%=      5-min Rain = 0
KST3 191850Z 19020KT 22/01 A2983 RMK A01 T02200005  RH  024%=      5-min Rain = 0
KST3 191851Z 19021KT 22/01 A2983 RMK A01 T02210005  RH  024%=      5-min Rain = 0
KST3 191852Z 19020G25KT 22/01 A2983 RMK A01 T02210005  RH  024%=      5-min Rain = 0
KST3 191853Z 19019KT 22/00 A2983 RMK A01 T02190003  RH  024%=      5-min Rain = 0
KST3 191854Z 19021KT 22/01 A2983 RMK A01 T02190005  RH  024%=      5-min Rain = 0
KST3 191855Z 20020KT 22/00 A2983 RMK A01 T02200004  RH  024%=      5-min Rain = 0
KST3 191856Z 20014KT 22/01 A2983 RMK A01 T02220007  RH  024%=      5-min Rain = 0
KST3 191857Z 19017KT 23/01 A2983 RMK A01 T02270010  RH  024%=      5-min Rain = 0
KST3 191858Z 20021G27KT 23/01 A2983 RMK A01 T02300008  RH  023%=      5-min Rain = 0
KST3 191859Z 19023KT 23/01 A2983 RMK A01 T02270005  RH  023%=      5-min Rain = 0
KST3 191900Z 20019KT 22/01 A2983 RMK A01 T02240005  RH  024%=      5-min Rain = 0
KST3 191901Z 19019KT 23/01 A2983 RMK A01 T02250008  RH  024%=      5-min Rain = 0
KST3 191902Z 20019KT 23/01 A2982 RMK A01 T02260007  RH  023%=      5-min Rain = 0
KST3 191903Z 20021KT 23/01 A2982 RMK A01 T02270006  RH  023%=      5-min Rain = 0
KST3 191904Z 20020G26KT 23/01 A2982 RMK A01 T02260006  RH  023%=      5-min Rain = 0
KST3 191905Z 19017KT 23/01 A2982 RMK A01 T02270008  RH  023%=      5-min Rain = 0
KST3 191906Z 19021KT 23/01 A2982 RMK A01 T02270008  RH  023%=      5-min Rain = 0
KST3 191907Z 18020KT 23/01 A2982 RMK A01 T02250006  RH  023%=      5-min Rain = 0
KST3 191908Z 19020KT 22/01 A2982 RMK A01 T02240007  RH  024%=      5-min Rain = 0
KST3 191909Z 20017KT 22/01 A2982 RMK A01 T02240008  RH  024%=      5-min Rain = 0
KST3 191910Z 19017KT 23/01 A2982 RMK A01 T02270011  RH  024%=      5-min Rain = 0
KST3 191911Z 19014G22KT 23/01 A2982 RMK A01 T02300010  RH  023%=      5-min Rain = 0
KST3 191912Z 19018KT 23/01 A2982 RMK A01 T02320010  RH  023%=      5-min Rain = 0
KST3 191913Z 19016G22KT 23/01 A2982 RMK A01 T02290008  RH  023%=      5-min Rain = 0
KST3 191914Z 18019KT 23/01 A2982 RMK A01 T02280009  RH  023%=      5-min Rain = 0
KST3 191915Z 19019KT 23/01 A2981 RMK A01 T02270008  RH  023%=      5-min Rain = 0
KST3 191916Z 19018KT 23/01 A2982 RMK A01 T02270009  RH  024%=      5-min Rain = 0
KST3 191917Z 18019KT 23/01 A2981 RMK A01 T02270009  RH  024%=      5-min Rain = 0
KST3 191918Z 18020G25KT 23/01 A2981 RMK A01 T02280009  RH  023%=      5-min Rain = 0
KST3 191919Z 19018G24KT 23/01 A2981 RMK A01 T02270008  RH  024%=      5-min Rain = 0
KST3 191920Z 19023KT 23/01 A2981 RMK A01 T02260008  RH  024%=      5-min Rain = 0
KST3 191921Z 19022KT 23/01 A2981 RMK A01 T02260007  RH  024%=      5-min Rain = 0
KST3 191922Z 19019KT 23/01 A2981 RMK A01 T02250007  RH  024%=      5-min Rain = 0
KST3 191923Z 18018G24KT 23/01 A2981 RMK A01 T02250009  RH  024%=      5-min Rain = 0
KST3 191924Z 19020G25KT 23/01 A2981 RMK A01 T02280009  RH  024%=      5-min Rain = 0
KST3 191925Z 18017G22KT 23/01 A2981 RMK A01 T02280010  RH  024%=      5-min Rain = 0
KST3 191926Z 18018KT 23/01 A2981 RMK A01 T02300011  RH  023%=      5-min Rain = 0
KST3 191927Z 19020KT 23/01 A2981 RMK A01 T02310010  RH  023%=      5-min Rain = 0
KST3 191928Z 20019KT 23/01 A2981 RMK A01 T02310009  RH  023%=      5-min Rain = 0
KST3 191929Z 19017KT 23/01 A2981 RMK A01 T02300008  RH  023%=      5-min Rain = 0
KST3 191930Z 19019G25KT 23/01 A2981 RMK A01 T02300009  RH  023%=      5-min Rain = 0
KST3 191931Z 18020KT 23/01 A2981 RMK A01 T02300009  RH  023%=      5-min Rain = 0
KST3 191932Z 18015KT 23/01 A2981 RMK A01 T02310010  RH  023%=      5-min Rain = 0
KST3 191933Z 19017KT 23/01 A2981 RMK A01 T02320011  RH  023%=      5-min Rain = 0
KST3 191934Z 19016KT 23/01 A2981 RMK A01 T02320011  RH  023%=      5-min Rain = 0
KST3 191935Z 19017G24KT 23/01 A2981 RMK A01 T02320011  RH  023%=      5-min Rain = 0
KST3 191936Z 19021KT 23/01 A298 RMK A01 T02330009  RH  023%=      5-min Rain = 0
KST3 191937Z 18015KT 23/01 A298 RMK A01 T02330009  RH  023%=      5-min Rain = 0
KST3 191938Z 17018KT 23/01 A298 RMK A01 T02330011  RH  023%=      5-min Rain = 0
KST3 191939Z 18021KT 23/01 A298 RMK A01 T02330010  RH  023%=      5-min Rain = 0
KST3 191940Z 19016G22KT 23/01 A298 RMK A01 T02330010  RH  023%=      5-min Rain = 0
KST3 191941Z 19019KT 23/01 A298 RMK A01 T02340011  RH  023%=      5-min Rain = 0
KST3 191942Z 18018KT 24/01 A298 RMK A01 T02360010  RH  023%=      5-min Rain = 0
KST3 191943Z 18019G25KT 24/01 A298 RMK A01 T02350008  RH  022%=      5-min Rain = 0
KST3 191944Z 19020KT 24/01 A298 RMK A01 T02350008  RH  023%=      5-min Rain = 0
KST3 191945Z 18019KT 24/01 A298 RMK A01 T02350009  RH  023%=      5-min Rain = 0
KST3 191946Z 19017KT 24/01 A298 RMK A01 T02370010  RH  023%=      5-min Rain = 0
KST3 191947Z 19019G25KT 24/01 A2979 RMK A01 T02400010  RH  022%=      5-min Rain = 0
KST3 191948Z 18022G28KT 24/01 A2979 RMK A01 T02410008  RH  021%=      5-min Rain = 0
KST3 191949Z 19022KT 24/01 A2979 RMK A01 T02410006  RH  021%=      5-min Rain = 0
KST3 191950Z 19021G27KT 24/01 A2979 RMK A01 T02400006  RH  021%=      5-min Rain = 0
KST3 191951Z 19020G25KT 24/01 A2979 RMK A01 T02380005  RH  021%=      5-min Rain = 0
KST3 191952Z 20021G26KT 24/01 A2979 RMK A01 T02380005  RH  022%=      5-min Rain = 0
KST3 191953Z 19023KT 24/01 A2979 RMK A01 T02370005  RH  022%=      5-min Rain = 0
KST3 191954Z 19023KT 24/01 A2979 RMK A01 T02360005  RH  022%=      5-min Rain = 0
KST3 191955Z 19017G24KT 24/01 A2979 RMK A01 T02360006  RH  022%=      5-min Rain = 0
KST3 191956Z 19017KT 24/01 A2979 RMK A01 T02390008  RH  022%=      5-min Rain = 0
KST3 191957Z 19021G26KT 24/01 A2979 RMK A01 T02400007  RH  021%=      5-min Rain = 0
KST3 191958Z 19019G24KT 24/01 A2979 RMK A01 T02390005  RH  021%=      5-min Rain = 0
KST3 191959Z 19023KT 24/01 A2979 RMK A01 T02370005  RH  022%=      5-min Rain = 0
KST3 192000Z 18022KT 24/00 A2979 RMK A01 T02360004  RH  022%=      5-min Rain = 0
KST3 192001Z 18024G29KT 23/00 A2979 RMK A01 T02340004  RH  022%=      5-min Rain = 0
KST3 192002Z 20020G29KT 23/01 A2978 RMK A01 T02330005  RH  022%=      5-min Rain = 0
KST3 192003Z 20019G24KT 23/01 A2979 RMK A01 T02330007  RH  022%=      5-min Rain = 0
KST3 192004Z 20021KT 23/01 A2979 RMK A01 T02340008  RH  023%=      5-min Rain = 0
KST3 192005Z 19020G26KT 23/01 A2979 RMK A01 T02340007  RH  022%=      5-min Rain = 0
KST3 192006Z 19022G29KT 23/01 A2978 RMK A01 T02340006  RH  022%=      5-min Rain = 0
KST3 192007Z 19023G28KT 23/01 A2978 RMK A01 T02340006  RH  022%=      5-min Rain = 0
KST3 192008Z 19022G27KT 23/00 A2978 RMK A01 T02330004  RH  022%=      5-min Rain = 0
KST3 192009Z 19020G25KT 23/00 A2978 RMK A01 T02330004  RH  022%=      5-min Rain = 0
KST3 192010Z 19019G24KT 23/00 A2978 RMK A01 T02330004  RH  022%=      5-min Rain = 0
KST3 192011Z 19022KT 23/00 A2978 RMK A01 T02340003  RH  022%=      5-min Rain = 0
KST3 192012Z 19020KT 23/00 A2978 RMK A01 T02340003  RH  022%=      5-min Rain = 0
KST3 192013Z 19019KT 24/00 A2978 RMK A01 T02350003  RH  022%=      5-min Rain = 0
KST3 192014Z 20020KT 24/00 A2978 RMK A01 T02360003  RH  021%=      5-min Rain = 0
KST3 192015Z 20019KT 24/00 A2978 RMK A01 T02360003  RH  021%=      5-min Rain = 0
KST3 192016Z 20015G20KT 24/01 A2978 RMK A01 T02380005  RH  021%=      5-min Rain = 0
KST3 192017Z 19020KT 24/01 A2978 RMK A01 T02420006  RH  021%=      5-min Rain = 0
KST3 192018Z 20020KT 24/00 A2978 RMK A01 T02420003  RH  021%=      5-min Rain = 0
KST3 192019Z 20017G22KT 24/00 A2978 RMK A01 T02410001  RH  021%=      5-min Rain = 0
KST3 192020Z 20019KT 24/00 A2978 RMK A01 T02410001  RH  021%=      5-min Rain = 0
KST3 192021Z 20017G22KT 24/00 A2978 RMK A01 T02420001  RH  020%=      5-min Rain = 0
KST3 192022Z 20018KT 24/00 A2978 RMK A01 T02420001  RH  020%=      5-min Rain = 0
KST3 192023Z 20017G22KT 24/00 A2978 RMK A01 T02420001  RH  020%=      5-min Rain = 0
KST3 192024Z 20019G24KT 24/00 A2978 RMK A01 T02430001  RH  020%=      5-min Rain = 0
KST3 192025Z 20019KT 24/00 A2978 RMK A01 T02430000  RH  020%=      5-min Rain = 0
KST3 192026Z 19016KT 24/00 A2978 RMK A01 T02420000  RH  020%=      5-min Rain = 0
KST3 192027Z 19017KT 24/00 A2978 RMK A01 T024100-0  RH  020%=      5-min Rain = 0
KST3 192028Z 19018KT 24/M00 A2978 RMK A01 T02411001  RH  020%=      5-min Rain = 0
KST3 192029Z 19017KT 24/00 A2978 RMK A01 T024100-0  RH  020%=      5-min Rain = 0
KST3 192030Z 20018G23KT 24/M00 A2977 RMK A01 T02411001  RH  020%=      5-min Rain = 0
KST3 192031Z 20015G21KT 24/00 A2978 RMK A01 T024200-0  RH  020%=      5-min Rain = 0
KST3 192032Z 19020G26KT 25/M00 A2977 RMK A01 T02461001  RH  020%=      5-min Rain = 0
KST3 192033Z 20018KT 25/M00 A2977 RMK A01 T02471004  RH  019%=      5-min Rain = 0
KST3 192034Z 20018G24KT 25/M00 A2977 RMK A01 T02481003  RH  019%=      5-min Rain = 0
KST3 192035Z 19021G27KT 25/M00 A2977 RMK A01 T02511004  RH  019%=      5-min Rain = 0
KST3 192036Z 20025KT 25/M01 A2977 RMK A01 T02511006  RH  018%=      5-min Rain = 0
KST3 192037Z 20024KT 25/M01 A2977 RMK A01 T02511006  RH  018%=      5-min Rain = 0
KST3 192038Z 20022KT 25/M01 A2977 RMK A01 T02511006  RH  018%=      5-min Rain = 0
KST3 192039Z 21021G26KT 25/M01 A2977 RMK A01 T02511005  RH  018%=      5-min Rain = 0
KST3 192040Z 22022KT 25/M01 A2977 RMK A01 T02521005  RH  018%=      5-min Rain = 0
KST3 192041Z 20025G30KT 25/M01 A2977 RMK A01 T02531005  RH  018%=      5-min Rain = 0
KST3 192042Z 21020G29KT 25/M01 A2977 RMK A01 T02531006  RH  018%=      5-min Rain = 0
KST3 192043Z 21022KT 25/M01 A2977 RMK A01 T02521006  RH  018%=      5-min Rain = 0
KST3 192044Z 20020G26KT 25/M01 A2977 RMK A01 T02491007  RH  018%=      5-min Rain = 0
KST3 192045Z 20018KT 25/M01 A2977 RMK A01 T02481006  RH  019%=      5-min Rain = 0
KST3 192046Z 21020KT 25/M01 A2977 RMK A01 T02481006  RH  019%=      5-min Rain = 0
KST3 192047Z 20020KT 25/M01 A2977 RMK A01 T02481005  RH  019%=      5-min Rain = 0
KST3 192048Z 20022KT 25/M01 A2977 RMK A01 T02471005  RH  019%=      5-min Rain = 0
KST3 192049Z 20023KT 25/M01 A2977 RMK A01 T02471005  RH  019%=      5-min Rain = 0
KST3 192050Z 20019G24KT 25/M01 A2977 RMK A01 T02451006  RH  019%=      5-min Rain = 0
KST3 192051Z 20017KT 24/M01 A2977 RMK A01 T02431005  RH  019%=      5-min Rain = 0
KST3 192052Z 21020G25KT 24/M01 A2977 RMK A01 T02411006  RH  019%=      5-min Rain = 0
KST3 192053Z 21018KT 24/M01 A2977 RMK A01 T02411006  RH  020%=      5-min Rain = 0
KST3 192054Z 21020KT 24/M00 A2977 RMK A01 T02431004  RH  019%=      5-min Rain = 0
KST3 192055Z 21018KT 25/M00 A2977 RMK A01 T02451004  RH  019%=      5-min Rain = 0
KST3 192056Z 21015KT 25/M00 A2977 RMK A01 T02471002  RH  019%=      5-min Rain = 0
KST3 192057Z 21015G23KT 25/00 A2977 RMK A01 T025200-0  RH  019%=      5-min Rain = 0
KST3 192058Z 21020G26KT 25/M00 A2977 RMK A01 T02541002  RH  019%=      5-min Rain = 0
KST3 192059Z 21018KT 25/M00 A2977 RMK A01 T02541003  RH  019%=      5-min Rain = 0
KST3 192100Z 21018KT 25/M00 A2977 RMK A01 T02541002  RH  019%=      5-min Rain = 0
KST3 192101Z 21016G21KT 25/M00 A2977 RMK A01 T02541002  RH  019%=      5-min Rain = 0
KST3 192102Z 21017KT 26/M00 A2977 RMK A01 T02571001  RH  018%=      5-min Rain = 0
KST3 192103Z 21022KT 26/M00 A2977 RMK A01 T02571002  RH  018%=      5-min Rain = 0
KST3 192104Z 21017KT 26/M00 A2977 RMK A01 T02551003  RH  018%=      5-min Rain = 0
KST3 192105Z 21017KT 25/M00 A2977 RMK A01 T02541003  RH  018%=      5-min Rain = 0
KST3 192106Z 20014KT 25/M00 A2977 RMK A01 T02541002  RH  019%=      5-min Rain = 0
KST3 192107Z 20015G21KT 26/00 A2977 RMK A01 T02570002  RH  019%=      5-min Rain = 0
KST3 192108Z 22020KT 26/00 A2977 RMK A01 T02600000  RH  018%=      5-min Rain = 0
KST3 192109Z 21016G22KT 26/M00 A2977 RMK A01 T02591001  RH  018%=      5-min Rain = 0
KST3 192110Z 21019KT 26/M00 A2977 RMK A01 T02591001  RH  018%=      5-min Rain = 0
KST3 192111Z 22020KT 26/M00 A2977 RMK A01 T02571002  RH  018%=      5-min Rain = 0
KST3 192112Z 21015KT 26/M00 A2977 RMK A01 T02561002  RH  018%=      5-min Rain = 0
KST3 192113Z 20017KT 26/00 A2977 RMK A01 T025700-0  RH  018%=      5-min Rain = 0
KST3 192114Z 20018KT 26/M00 A2977 RMK A01 T02581002  RH  018%=      5-min Rain = 0
KST3 192115Z 20016G21KT 26/M00 A2977 RMK A01 T02571002  RH  018%=      5-min Rain = 0
KST3 192116Z 20015KT 26/M00 A2977 RMK A01 T02571001  RH  018%=      5-min Rain = 0
KST3 192117Z 21015KT 26/00 A2977 RMK A01 T02580001  RH  018%=      5-min Rain = 0
KST3 192118Z 21018G23KT 26/M00 A2976 RMK A01 T02591001  RH  018%=      5-min Rain = 0
KST3 192119Z 20017KT 26/M00 A2976 RMK A01 T02571002  RH  018%=      5-min Rain = 0
KST3 192120Z 21016KT 26/M00 A2976 RMK A01 T02571002  RH  018%=      5-min Rain = 0
KST3 192121Z 21019G24KT 26/M00 A2976 RMK A01 T02571001  RH  018%=      5-min Rain = 0
KST3 192122Z 21018G23KT 26/M00 A2976 RMK A01 T02561002  RH  018%=      5-min Rain = 0
KST3 192123Z 20019G24KT 25/M00 A2976 RMK A01 T02531003  RH  019%=      5-min Rain = 0
KST3 192124Z 21016KT 25/M00 A2976 RMK A01 T02521003  RH  019%=      5-min Rain = 0
KST3 192125Z 21017KT 25/M00 A2976 RMK A01 T02531003  RH  019%=      5-min Rain = 0
KST3 192126Z 20016KT 25/M00 A2976 RMK A01 T02531004  RH  018%=      5-min Rain = 0
KST3 192127Z 20021KT 25/M00 A2976 RMK A01 T02541004  RH  018%=      5-min Rain = 0
KST3 192128Z 20023KT 25/M01 A2976 RMK A01 T02541005  RH  018%=      5-min Rain = 0
KST3 192129Z 20020KT 25/M01 A2976 RMK A01 T02541005  RH  018%=      5-min Rain = 0
KST3 192130Z 21021KT 25/M01 A2976 RMK A01 T02541006  RH  018%=      5-min Rain = 0
KST3 192131Z 20022KT 25/M01 A2976 RMK A01 T02541007  RH  018%=      5-min Rain = 0
KST3 192132Z 21020G26KT 25/M01 A2976 RMK A01 T02541008  RH  018%=      5-min Rain = 0
KST3 192133Z 21023KT 25/M01 A2976 RMK A01 T02541009  RH  018%=      5-min Rain = 0
KST3 192134Z 21021KT 25/M01 A2976 RMK A01 T02541009  RH  018%=      5-min Rain = 0
KST3 192135Z 21023KT 25/M01 A2976 RMK A01 T02541008  RH  018%=      5-min Rain = 0
KST3 192136Z 21021KT 25/M01 A2976 RMK A01 T02541009  RH  018%=      5-min Rain = 0
KST3 192137Z 21023KT 25/M01 A2976 RMK A01 T02541009  RH  018%=      5-min Rain = 0
KST3 192138Z 20020G26KT 25/M01 A2976 RMK A01 T02541010  RH  018%=      5-min Rain = 0
KST3 192139Z 20021KT 25/M01 A2976 RMK A01 T02541010  RH  018%=      5-min Rain = 0
KST3 192140Z 22019G24KT 25/M01 A2976 RMK A01 T02531011  RH  018%=      5-min Rain = 0
KST3 192141Z 22021KT 25/M01 A2976 RMK A01 T02531010  RH  018%=      5-min Rain = 0
KST3 192142Z 21016G21KT 25/M01 A2976 RMK A01 T02531011  RH  018%=      5-min Rain = 0
KST3 192143Z 20020G26KT 25/M01 A2976 RMK A01 T02521010  RH  018%=      5-min Rain = 0
KST3 192144Z 19020KT 25/M01 A2976 RMK A01 T02531011  RH  018%=      5-min Rain = 0
KST3 192145Z 20020KT 25/M01 A2976 RMK A01 T02521011  RH  018%=      5-min Rain = 0
KST3 192146Z 20021KT 25/M01 A2976 RMK A01 T02521011  RH  018%=      5-min Rain = 0
KST3 192147Z 20019KT 25/M01 A2976 RMK A01 T02521011  RH  018%=      5-min Rain = 0
KST3 192148Z 20019KT 25/M01 A2976 RMK A01 T02521010  RH  018%=      5-min Rain = 0
KST3 192149Z 20016G22KT 25/M01 A2976 RMK A01 T02521010  RH  018%=      5-min Rain = 0
KST3 192150Z 21016G21KT 25/M01 A2976 RMK A01 T02521009  RH  018%=      5-min Rain = 0
KST3 192151Z 21019KT 25/M01 A2976 RMK A01 T02521009  RH  018%=      5-min Rain = 0
KST3 192152Z 21016KT 25/M01 A2976 RMK A01 T02521010  RH  018%=      5-min Rain = 0
KST3 192153Z 21016KT 25/M01 A2976 RMK A01 T02521009  RH  018%=      5-min Rain = 0
KST3 192154Z 22014KT 25/M01 A2976 RMK A01 T02521009  RH  018%=      5-min Rain = 0
KST3 192155Z 20014KT 25/M01 A2976 RMK A01 T02521008  RH  018%=      5-min Rain = 0
KST3 192156Z 20013KT 25/M01 A2976 RMK A01 T02521008  RH  018%=      5-min Rain = 0
KST3 192157Z 20016G23KT 25/M01 A2976 RMK A01 T02521009  RH  018%=      5-min Rain = 0
KST3 192158Z 21019KT 25/M01 A2976 RMK A01 T02531010  RH  018%=      5-min Rain = 0
KST3 192159Z 20018KT 25/M01 A2976 RMK A01 T02521010  RH  018%=      5-min Rain = 0
KST3 192200Z 21018KT 25/M01 A2976 RMK A01 T02521010  RH  018%=      5-min Rain = 0
KST3 192201Z 21020KT 25/M01 A2976 RMK A01 T02511010  RH  018%=      5-min Rain = 0
KST3 192202Z 20019KT 25/M01 A2976 RMK A01 T02511011  RH  018%=      5-min Rain = 0
KST3 192203Z 20018KT 25/M01 A2976 RMK A01 T02501010  RH  018%=      5-min Rain = 0
KST3 192204Z 20017KT 25/M01 A2975 RMK A01 T02501010  RH  018%=      5-min Rain = 0
KST3 192205Z 21020KT 25/M01 A2975 RMK A01 T02501009  RH  018%=      5-min Rain = 0
KST3 192206Z 21016KT 25/M01 A2975 RMK A01 T02501009  RH  018%=      5-min Rain = 0
KST3 192207Z 20012KT 25/M01 A2975 RMK A01 T02501008  RH  018%=      5-min Rain = 0
KST3 192208Z 20014KT 25/M01 A2975 RMK A01 T02501007  RH  018%=      5-min Rain = 0
KST3 192209Z 19017KT 25/M01 A2975 RMK A01 T02501007  RH  018%=      5-min Rain = 0
KST3 192210Z 19019KT 25/M01 A2975 RMK A01 T02501007  RH  018%=      5-min Rain = 0
KST3 192211Z 19018KT 25/M01 A2975 RMK A01 T02491008  RH  018%=      5-min Rain = 0
KST3 192212Z 19017KT 25/M01 A2975 RMK A01 T02481006  RH  019%=      5-min Rain = 0
KST3 192213Z 19017KT 25/M01 A2975 RMK A01 T02481007  RH  019%=      5-min Rain = 0
KST3 192214Z 19016KT 25/M01 A2975 RMK A01 T02481006  RH  019%=      5-min Rain = 0
KST3 192215Z 19015KT 25/M01 A2975 RMK A01 T02471006  RH  019%=      5-min Rain = 0
KST3 192216Z 19015KT 25/M01 A2975 RMK A01 T02471007  RH  019%=      5-min Rain = 0
KST3 192217Z 20017KT 25/M01 A2975 RMK A01 T02481006  RH  019%=      5-min Rain = 0
KST3 192218Z 20015KT 25/M01 A2975 RMK A01 T02481006  RH  019%=      5-min Rain = 0
KST3 192219Z 19012KT 25/M01 A2975 RMK A01 T02481006  RH  019%=      5-min Rain = 0
KST3 192220Z 19013KT 25/M01 A2975 RMK A01 T02481005  RH  019%=      5-min Rain = 0
KST3 192221Z 20013KT 25/M00 A2975 RMK A01 T02491004  RH  019%=      5-min Rain = 0
KST3 192222Z 19015KT 25/M00 A2975 RMK A01 T02491004  RH  019%=      5-min Rain = 0
KST3 192223Z 19016KT 25/M01 A2975 RMK A01 T02481005  RH  019%=      5-min Rain = 0
KST3 192224Z 19016KT 25/M00 A2975 RMK A01 T02471004  RH  019%=      5-min Rain = 0
KST3 192225Z 19015KT 25/M00 A2975 RMK A01 T02471002  RH  019%=      5-min Rain = 0
KST3 192226Z 19015KT 25/M00 A2975 RMK A01 T02461002  RH  019%=      5-min Rain = 0
KST3 192227Z 19013KT 25/M00 A2975 RMK A01 T02461001  RH  020%=      5-min Rain = 0
KST3 192228Z 19011KT 25/00 A2976 RMK A01 T024500-0  RH  020%=      5-min Rain = 0
KST3 192229Z 19012KT 24/00 A2975 RMK A01 T024400-0  RH  020%=      5-min Rain = 0
KST3 192230Z 19014KT 24/00 A2975 RMK A01 T02440000  RH  020%=      5-min Rain = 0
KST3 192231Z 19015KT 24/00 A2975 RMK A01 T024400-0  RH  020%=      5-min Rain = 0
KST3 192232Z 19016KT 24/M00 A2975 RMK A01 T02431001  RH  020%=      5-min Rain = 0
KST3 192233Z 19014KT 24/M00 A2975 RMK A01 T02431001  RH  020%=      5-min Rain = 0
KST3 192234Z 19016KT 24/00 A2975 RMK A01 T02430000  RH  020%=      5-min Rain = 0
KST3 192235Z 19013KT 24/00 A2975 RMK A01 T02420000  RH  020%=      5-min Rain = 0
KST3 192236Z 19016KT 24/00 A2975 RMK A01 T02420000  RH  020%=      5-min Rain = 0
KST3 192237Z 19016KT 24/M00 A2975 RMK A01 T02411001  RH  020%=      5-min Rain = 0
KST3 192238Z 19013KT 24/M00 A2975 RMK A01 T02411001  RH  020%=      5-min Rain = 0
KST3 192239Z 19013KT 24/M00 A2975 RMK A01 T02411001  RH  020%=      5-min Rain = 0
KST3 192240Z 20013KT 24/M00 A2975 RMK A01 T02401001  RH  020%=      5-min Rain = 0
KST3 192241Z 19011KT 24/M00 A2975 RMK A01 T02401003  RH  020%=      5-min Rain = 0
KST3 192242Z 20013G20KT 24/M00 A2975 RMK A01 T02391002  RH  020%=      5-min Rain = 0
KST3 192243Z 19016KT 24/M00 A2975 RMK A01 T02391004  RH  020%=      5-min Rain = 0
KST3 192244Z 19017KT 24/M01 A2975 RMK A01 T02401007  RH  020%=      5-min Rain = 0
KST3 192245Z 19017KT 24/M01 A2975 RMK A01 T02401007  RH  019%=      5-min Rain = 0
KST3 192246Z 19015KT 24/M01 A2975 RMK A01 T02401007  RH  019%=      5-min Rain = 0
KST3 192247Z 19013G18KT 24/M01 A2975 RMK A01 T02401007  RH  020%=      5-min Rain = 0
KST3 192248Z 19012KT 24/M01 A2975 RMK A01 T02391006  RH  020%=      5-min Rain = 0
KST3 192249Z 19012KT 24/M01 A2975 RMK A01 T02381006  RH  020%=      5-min Rain = 0
KST3 192250Z 19013G18KT 24/M01 A2975 RMK A01 T02371005  RH  020%=      5-min Rain = 0
KST3 192251Z 18015KT 24/M01 A2975 RMK A01 T02371005  RH  020%=      5-min Rain = 0
KST3 192252Z 18016KT 24/M01 A2975 RMK A01 T02371005  RH  020%=      5-min Rain = 0
KST3 192253Z 19013KT 24/M01 A2975 RMK A01 T02361005  RH  020%=      5-min Rain = 0
KST3 192254Z 19012KT 24/M00 A2975 RMK A01 T02361004  RH  020%=      5-min Rain = 0
KST3 192255Z 19014KT 23/M00 A2975 RMK A01 T02341004  RH  021%=      5-min Rain = 0
KST3 192256Z 18015KT 23/M00 A2975 RMK A01 T02341004  RH  021%=      5-min Rain = 0
KST3 192257Z 19015KT 23/M00 A2975 RMK A01 T02341004  RH  021%=      5-min Rain = 0
KST3 192258Z 19014KT 23/M01 A2975 RMK A01 T02341005  RH  021%=      5-min Rain = 0
KST3 192259Z 19015KT 23/M01 A2975 RMK A01 T02341005  RH  021%=      5-min Rain = 0
KST3 192300Z 19015KT 23/M01 A2975 RMK A01 T02331005  RH  021%=      5-min Rain = 0
KST3 192301Z 19014KT 23/M01 A2975 RMK A01 T02331005  RH  021%=      5-min Rain = 0
KST3 192302Z 18013KT 23/M01 A2975 RMK A01 T02321005  RH  021%=      5-min Rain = 0
KST3 192303Z 19015KT 23/M01 A2975 RMK A01 T02321005  RH  021%=      5-min Rain = 0
KST3 192304Z 19015KT 23/M01 A2975 RMK A01 T02311005  RH  021%=      5-min Rain = 0
KST3 192305Z 19015KT 23/M01 A2975 RMK A01 T02311005  RH  021%=      5-min Rain = 0
KST3 192306Z 19014KT 23/M01 A2975 RMK A01 T02301005  RH  021%=      5-min Rain = 0
KST3 192307Z 19013KT 23/M01 A2975 RMK A01 T02301006  RH  021%=      5-min Rain = 0
KST3 192308Z 19014KT 23/M01 A2975 RMK A01 T02291006  RH  021%=      5-min Rain = 0
KST3 192309Z 19015KT 23/M01 A2975 RMK A01 T02291006  RH  021%=      5-min Rain = 0
KST3 192310Z 18015KT 23/M01 A2975 RMK A01 T02281006  RH  021%=      5-min Rain = 0
KST3 192311Z 19015KT 23/M01 A2975 RMK A01 T02281007  RH  021%=      5-min Rain = 0
KST3 192312Z 19014KT 23/M01 A2975 RMK A01 T02271007  RH  021%=      5-min Rain = 0
KST3 192313Z 19015KT 23/M01 A2975 RMK A01 T02271007  RH  021%=      5-min Rain = 0
KST3 192314Z 19016KT 23/M01 A2975 RMK A01 T02261007  RH  021%=      5-min Rain = 0
KST3 192315Z 19015KT 23/M01 A2975 RMK A01 T02261007  RH  021%=      5-min Rain = 0
KST3 192316Z 19014KT 23/M01 A2975 RMK A01 T02251007  RH  021%=      5-min Rain = 0
KST3 192317Z 19016KT 22/M01 A2975 RMK A01 T02241008  RH  021%=      5-min Rain = 0
KST3 192318Z 19015KT 22/M01 A2974 RMK A01 T02231008  RH  021%=      5-min Rain = 0
KST3 192319Z 19014KT 22/M01 A2975 RMK A01 T02241008  RH  021%=      5-min Rain = 0
KST3 192320Z 18013KT 22/M01 A2975 RMK A01 T02241008  RH  021%=      5-min Rain = 0
KST3 192321Z 18014KT 22/M01 A2974 RMK A01 T02231008  RH  021%=      5-min Rain = 0
KST3 192322Z 19014KT 22/M01 A2975 RMK A01 T02231008  RH  021%=      5-min Rain = 0
KST3 192323Z 19014KT 22/M01 A2975 RMK A01 T02221008  RH  022%=      5-min Rain = 0
KST3 192324Z 19014KT 22/M01 A2975 RMK A01 T02211009  RH  022%=      5-min Rain = 0
KST3 192325Z 19014KT 22/M01 A2975 RMK A01 T02201009  RH  022%=      5-min Rain = 0
KST3 192326Z 18014KT 22/M01 A2975 RMK A01 T02191008  RH  022%=      5-min Rain = 0
KST3 192327Z 19016KT 22/M01 A2975 RMK A01 T02191008  RH  022%=      5-min Rain = 0
KST3 192328Z 19016KT 22/M01 A2975 RMK A01 T02181009  RH  022%=      5-min Rain = 0
KST3 192329Z 19014G19KT 22/M01 A2975 RMK A01 T02181008  RH  022%=      5-min Rain = 0
KST3 192330Z 19013KT 22/M01 A2975 RMK A01 T02171008  RH  022%=      5-min Rain = 0
KST3 192331Z 19014KT 22/M01 A2975 RMK A01 T02161009  RH  022%=      5-min Rain = 0
KST3 192332Z 19013KT 22/M01 A2975 RMK A01 T02161008  RH  022%=      5-min Rain = 0
KST3 192333Z 19014KT 22/M01 A2975 RMK A01 T02151008  RH  023%=      5-min Rain = 0
KST3 192334Z 19014KT 21/M01 A2975 RMK A01 T02141008  RH  023%=      5-min Rain = 0
KST3 192335Z 19015KT 21/M01 A2975 RMK A01 T02141008  RH  023%=      5-min Rain = 0
KST3 192336Z 19013KT 21/M01 A2975 RMK A01 T02131007  RH  023%=      5-min Rain = 0
KST3 192337Z 19015KT 21/M01 A2975 RMK A01 T02121008  RH  023%=      5-min Rain = 0
KST3 192338Z 19013KT 21/M01 A2975 RMK A01 T02121007  RH  023%=      5-min Rain = 0
KST3 192339Z 19014KT 21/M01 A2975 RMK A01 T02121007  RH  023%=      5-min Rain = 0
KST3 192340Z 19013KT 21/M01 A2975 RMK A01 T02111007  RH  023%=      5-min Rain = 0
KST3 192341Z 19013KT 21/M01 A2975 RMK A01 T02101007  RH  023%=      5-min Rain = 0
KST3 192342Z 19013KT 21/M01 A2975 RMK A01 T02091007  RH  023%=      5-min Rain = 0
KST3 192343Z 19015KT 21/M01 A2975 RMK A01 T02081007  RH  024%=      5-min Rain = 0
KST3 192344Z 19015KT 21/M01 A2975 RMK A01 T02081007  RH  024%=      5-min Rain = 0
KST3 192345Z 19014KT 21/M01 A2975 RMK A01 T02091007  RH  024%=      5-min Rain = 0
KST3 192346Z 19012KT 21/M01 A2975 RMK A01 T02081007  RH  024%=      5-min Rain = 0
KST3 192347Z 19014KT 21/M01 A2975 RMK A01 T02071007  RH  024%=      5-min Rain = 0
KST3 192348Z 19013KT 21/M01 A2975 RMK A01 T02071007  RH  024%=      5-min Rain = 0
KST3 192349Z 19012KT 21/M01 A2975 RMK A01 T02051007  RH  024%=      5-min Rain = 0
KST3 192350Z 19012KT 20/M01 A2975 RMK A01 T02041007  RH  024%=      5-min Rain = 0
KST3 192351Z 19012KT 20/M01 A2975 RMK A01 T02031008  RH  024%=      5-min Rain = 0
KST3 192352Z 19013KT 20/M01 A2975 RMK A01 T02021007  RH  024%=      5-min Rain = 0
KST3 192353Z 19013KT 20/M01 A2975 RMK A01 T02021008  RH  024%=      5-min Rain = 0
KST3 192354Z 19013KT 20/M01 A2975 RMK A01 T02021007  RH  025%=      5-min Rain = 0
KST3 192355Z 19014KT 20/M01 A2975 RMK A01 T02021008  RH  024%=      5-min Rain = 0
KST3 192356Z 19012KT 20/M01 A2975 RMK A01 T02021007  RH  024%=      5-min Rain = 0
KST3 192357Z 19012KT 20/M01 A2975 RMK A01 T02021007  RH  024%=      5-min Rain = 0
KST3 192358Z 19012KT 20/M01 A2975 RMK A01 T02021007  RH  025%=      5-min Rain = 0
KST3 192359Z 19012KT 20/M01 A2975 RMK A01 T02001008  RH  025%=      5-min Rain = 0
KST3 200000Z 19013KT 20/M01 A2975 RMK A01 T02001007  RH  025%=      5-min Rain = 0
KST3 200001Z 19013KT 20/M01 A2975 RMK A01 T01991008  RH  025%=      5-min Rain = 0
KST3 200002Z 19011KT 20/M01 A2975 RMK A01 T01991007  RH  025%=      5-min Rain = 0
KST3 200003Z 19012KT 20/M01 A2975 RMK A01 T01981008  RH  025%=      5-min Rain = 0
KST3 200004Z 19012KT 20/M01 A2975 RMK A01 T01981008  RH  025%=      5-min Rain = 0
KST3 200005Z 19012KT 20/M01 A2975 RMK A01 T01971008  RH  025%=      5-min Rain = 0
KST3 200006Z 19012KT 20/M01 A2975 RMK A01 T01961008  RH  025%=      5-min Rain = 0
KST3 200007Z 19013KT 20/M01 A2975 RMK A01 T01961007  RH  025%=      5-min Rain = 0
KST3 200008Z 19012KT 20/M01 A2975 RMK A01 T01961008  RH  025%=      5-min Rain = 0
KST3 200009Z 19012KT 20/M01 A2975 RMK A01 T01961007  RH  025%=      5-min Rain = 0
KST3 200010Z 19012KT 20/M01 A2976 RMK A01 T01951008  RH  025%=      5-min Rain = 0
KST3 200011Z 19011KT 20/M01 A2976 RMK A01 T01951008  RH  025%=      5-min Rain = 0
KST3 200012Z 19011KT 20/M01 A2976 RMK A01 T01951008  RH  026%=      5-min Rain = 0
KST3 200013Z 19012KT 19/M01 A2976 RMK A01 T01941008  RH  026%=      5-min Rain = 0
KST3 200014Z 19012KT 19/M01 A2976 RMK A01 T01941008  RH  026%=      5-min Rain = 0
KST3 200015Z 19011KT 19/M01 A2976 RMK A01 T01941008  RH  026%=      5-min Rain = 0
KST3 200016Z 19011KT 19/M01 A2976 RMK A01 T01931008  RH  026%=      5-min Rain = 0
KST3 200017Z 18011KT 19/M01 A2976 RMK A01 T01921008  RH  026%=      5-min Rain = 0
KST3 200018Z 19011KT 19/M01 A2976 RMK A01 T01911008  RH  026%=      5-min Rain = 0
KST3 200019Z 18012KT 19/M01 A2976 RMK A01 T01911008  RH  026%=      5-min Rain = 0
KST3 200020Z 18012KT 19/M01 A2976 RMK A01 T01911008  RH  026%=      5-min Rain = 0
KST3 200021Z 18011KT 19/M01 A2976 RMK A01 T01911008  RH  026%=      5-min Rain = 0
KST3 200022Z 18012KT 19/M01 A2976 RMK A01 T01911008  RH  026%=      5-min Rain = 0
KST3 200023Z 18012KT 19/M01 A2976 RMK A01 T01921008  RH  026%=      5-min Rain = 0
KST3 200024Z 18013KT 19/M01 A2976 RMK A01 T01921008  RH  026%=      5-min Rain = 0
KST3 200025Z 18014KT 19/M01 A2976 RMK A01 T01931008  RH  026%=      5-min Rain = 0
KST3 200026Z 18011KT 19/M01 A2976 RMK A01 T01941007  RH  026%=      5-min Rain = 0
KST3 200027Z 18012KT 19/M01 A2976 RMK A01 T01931008  RH  026%=      5-min Rain = 0
KST3 200028Z 18012KT 19/M01 A2976 RMK A01 T01931008  RH  026%=      5-min Rain = 0
KST3 200029Z 18014KT 19/M01 A2976 RMK A01 T01921007  RH  026%=      5-min Rain = 0
KST3 200030Z 18013KT 19/M01 A2976 RMK A01 T01921007  RH  026%=      5-min Rain = 0
KST3 200031Z 18012KT 19/M01 A2976 RMK A01 T01921007  RH  026%=      5-min Rain = 0
KST3 200032Z 18012KT 19/M01 A2976 RMK A01 T01921006  RH  026%=      5-min Rain = 0
KST3 200033Z 18012KT 19/M01 A2976 RMK A01 T01911006  RH  026%=      5-min Rain = 0
KST3 200034Z 18012KT 19/M01 A2976 RMK A01 T01901006  RH  027%=      5-min Rain = 0
KST3 200035Z 18011KT 19/M01 A2976 RMK A01 T01891006  RH  027%=      5-min Rain = 0
KST3 200036Z 18012KT 19/M01 A2976 RMK A01 T01891006  RH  027%=      5-min Rain = 0
KST3 200037Z 18012KT 19/M01 A2976 RMK A01 T01891006  RH  027%=      5-min Rain = 0
KST3 200038Z 18013KT 19/M01 A2976 RMK A01 T01891006  RH  027%=      5-min Rain = 0
KST3 200039Z 18012KT 19/M01 A2976 RMK A01 T01881005  RH  027%=      5-min Rain = 0
KST3 200040Z 18013KT 19/M01 A2976 RMK A01 T01881006  RH  027%=      5-min Rain = 0
KST3 200041Z 18014KT 19/M01 A2976 RMK A01 T01881005  RH  027%=      5-min Rain = 0
KST3 200042Z 18013KT 19/M01 A2976 RMK A01 T01891005  RH  027%=      5-min Rain = 0
KST3 200043Z 18012KT 19/M01 A2976 RMK A01 T01891005  RH  027%=      5-min Rain = 0
KST3 200044Z 18013KT 19/M01 A2976 RMK A01 T01891005  RH  027%=      5-min Rain = 0
KST3 200045Z 18011KT 19/M01 A2976 RMK A01 T01891005  RH  027%=      5-min Rain = 0
KST3 200046Z 18013KT 19/M01 A2976 RMK A01 T01881005  RH  027%=      5-min Rain = 0
KST3 200047Z 18012KT 19/M01 A2976 RMK A01 T01881005  RH  027%=      5-min Rain = 0
KST3 200048Z 18011KT 19/M01 A2976 RMK A01 T01871005  RH  027%=      5-min Rain = 0
KST3 200049Z 18012KT 19/M01 A2976 RMK A01 T01861005  RH  027%=      5-min Rain = 0
KST3 200050Z 18011KT 19/M01 A2976 RMK A01 T01861005  RH  028%=      5-min Rain = 0
KST3 200051Z 18011KT 19/M01 A2976 RMK A01 T01851005  RH  028%=      5-min Rain = 0
KST3 200052Z 18013KT 18/M01 A2976 RMK A01 T01841005  RH  028%=      5-min Rain = 0
KST3 200053Z 19012KT 18/M01 A2976 RMK A01 T01831005  RH  028%=      5-min Rain = 0
KST3 200054Z 19012KT 18/M01 A2976 RMK A01 T01831005  RH  028%=      5-min Rain = 0
KST3 200055Z 18013KT 18/M01 A2977 RMK A01 T01831005  RH  028%=      5-min Rain = 0
KST3 200056Z 19012KT 18/M01 A2977 RMK A01 T01831005  RH  028%=      5-min Rain = 0
KST3 200057Z 19011KT 18/M01 A2977 RMK A01 T01811005  RH  028%=      5-min Rain = 0
KST3 200058Z 19012KT 18/M01 A2977 RMK A01 T01811005  RH  028%=      5-min Rain = 0
KST3 200059Z 18010KT 18/M01 A2977 RMK A01 T01801005  RH  029%=      5-min Rain = 0
KST3 200100Z 19011KT 18/M01 A2977 RMK A01 T01791005  RH  029%=      5-min Rain = 0
KST3 200101Z 18011KT 18/M01 A2977 RMK A01 T01781005  RH  029%=      5-min Rain = 0
KST3 200102Z 18012KT 18/M01 A2977 RMK A01 T01771005  RH  029%=      5-min Rain = 0
KST3 200103Z 18011KT 18/M01 A2977 RMK A01 T01781005  RH  029%=      5-min Rain = 0
KST3 200104Z 18012KT 18/M01 A2977 RMK A01 T01791005  RH  029%=      5-min Rain = 0
KST3 200105Z 18011KT 18/M01 A2977 RMK A01 T01801005  RH  029%=      5-min Rain = 0
KST3 200106Z 18013KT 18/M01 A2977 RMK A01 T01801005  RH  029%=      5-min Rain = 0
KST3 200107Z 18013KT 18/M01 A2976 RMK A01 T01811005  RH  028%=      5-min Rain = 0
KST3 200108Z 18013KT 18/M01 A2976 RMK A01 T01821005  RH  028%=      5-min Rain = 0
KST3 200109Z 18012KT 18/M01 A2976 RMK A01 T01821005  RH  028%=      5-min Rain = 0
KST3 200110Z 18013KT 18/M01 A2976 RMK A01 T01811006  RH  028%=      5-min Rain = 0
KST3 200111Z 18013KT 18/M01 A2976 RMK A01 T01811006  RH  028%=      5-min Rain = 0
KST3 200112Z 18012KT 18/M01 A2976 RMK A01 T01811005  RH  028%=      5-min Rain = 0
KST3 200113Z 18013KT 18/M01 A2976 RMK A01 T01811005  RH  028%=      5-min Rain = 0
KST3 200114Z 18012KT 18/M01 A2977 RMK A01 T01811005  RH  028%=      5-min Rain = 0
KST3 200115Z 18013KT 18/M01 A2977 RMK A01 T01811005  RH  028%=      5-min Rain = 0
KST3 200116Z 19013KT 18/M01 A2977 RMK A01 T01811005  RH  028%=      5-min Rain = 0
KST3 200117Z 18013KT 18/M01 A2977 RMK A01 T01811005  RH  028%=      5-min Rain = 0
KST3 200118Z 18013KT 18/M01 A2977 RMK A01 T01811005  RH  028%=      5-min Rain = 0
KST3 200119Z 18012KT 18/M01 A2977 RMK A01 T01801005  RH  028%=      5-min Rain = 0
KST3 200120Z 18013KT 18/M01 A2977 RMK A01 T01801005  RH  029%=      5-min Rain = 0
KST3 200121Z 18014KT 18/M01 A2977 RMK A01 T01801005  RH  029%=      5-min Rain = 0
KST3 200122Z 19014KT 18/M01 A2977 RMK A01 T01801005  RH  029%=      5-min Rain = 0
KST3 200123Z 18013KT 18/M01 A2977 RMK A01 T01801005  RH  028%=      5-min Rain = 0
KST3 200124Z 18013KT 18/M01 A2977 RMK A01 T01811005  RH  028%=      5-min Rain = 0
KST3 200125Z 18013KT 18/M01 A2977 RMK A01 T01811005  RH  028%=      5-min Rain = 0
KST3 200126Z 18013KT 18/M01 A2977 RMK A01 T01801005  RH  028%=      5-min Rain = 0
KST3 200127Z 18012KT 18/M01 A2977 RMK A01 T01801005  RH  029%=      5-min Rain = 0
KST3 200128Z 18012KT 18/M01 A2977 RMK A01 T01791005  RH  029%=      5-min Rain = 0
KST3 200129Z 18012KT 18/M01 A2977 RMK A01 T01781006  RH  029%=      5-min Rain = 0
KST3 200130Z 18012KT 18/M01 A2977 RMK A01 T01771006  RH  029%=      5-min Rain = 0
KST3 200131Z 18013KT 18/M01 A2977 RMK A01 T01781005  RH  029%=      5-min Rain = 0
KST3 200132Z 18011KT 18/M01 A2977 RMK A01 T01781005  RH  029%=      5-min Rain = 0
KST3 200133Z 18012KT 18/M01 A2977 RMK A01 T01771005  RH  029%=      5-min Rain = 0
KST3 200134Z 18012KT 18/M01 A2977 RMK A01 T01761006  RH  029%=      5-min Rain = 0
KST3 200135Z 18012KT 18/M01 A2977 RMK A01 T01761005  RH  029%=      5-min Rain = 0
KST3 200136Z 18012KT 18/M01 A2977 RMK A01 T01751005  RH  029%=      5-min Rain = 0
KST3 200137Z 18012KT 18/M01 A2977 RMK A01 T01751005  RH  030%=      5-min Rain = 0
KST3 200138Z 18012G18KT 18/M01 A2977 RMK A01 T01751005  RH  030%=      5-min Rain = 0
KST3 200139Z 18011KT 18/M00 A2977 RMK A01 T01761004  RH  029%=      5-min Rain = 0
KST3 200140Z 18012KT 18/M01 A2977 RMK A01 T01751005  RH  030%=      5-min Rain = 0
KST3 200141Z 18013KT 18/M01 A2977 RMK A01 T01751005  RH  030%=      5-min Rain = 0
KST3 200142Z 18013KT 18/M00 A2977 RMK A01 T01761004  RH  030%=      5-min Rain = 0
KST3 200143Z 18012KT 18/M00 A2977 RMK A01 T01771004  RH  029%=      5-min Rain = 0
KST3 200144Z 18011KT 18/M00 A2977 RMK A01 T01771004  RH  029%=      5-min Rain = 0
KST3 200145Z 19012KT 18/M01 A2977 RMK A01 T01761005  RH  029%=      5-min Rain = 0
KST3 200146Z 18010KT 18/M00 A2977 RMK A01 T01761004  RH  030%=      5-min Rain = 0
KST3 200147Z 18010KT 18/M00 A2977 RMK A01 T01751004  RH  030%=      5-min Rain = 0
KST3 200148Z 18012KT 18/M00 A2977 RMK A01 T01751004  RH  030%=      5-min Rain = 0
KST3 200149Z 18012KT 17/M00 A2977 RMK A01 T01741004  RH  030%=      5-min Rain = 0
KST3 200150Z 18010KT 17/M00 A2977 RMK A01 T01731004  RH  030%=      5-min Rain = 0
KST3 200151Z 18009KT 17/M00 A2977 RMK A01 T01731004  RH  030%=      5-min Rain = 0
KST3 200152Z 18011KT 17/M00 A2977 RMK A01 T01721004  RH  030%=      5-min Rain = 0
KST3 200153Z 18011KT 17/M00 A2977 RMK A01 T01721004  RH  030%=      5-min Rain = 0
KST3 200154Z 18014KT 17/M00 A2977 RMK A01 T01721004  RH  030%=      5-min Rain = 0
KST3 200155Z 18013KT 17/M00 A2977 RMK A01 T01731003  RH  030%=      5-min Rain = 0
KST3 200156Z 18013KT 17/M00 A2977 RMK A01 T01731003  RH  030%=      5-min Rain = 0
KST3 200157Z 18013KT 17/M00 A2977 RMK A01 T01731002  RH  030%=      5-min Rain = 0
KST3 200158Z 17012KT 17/M00 A2977 RMK A01 T01731002  RH  030%=      5-min Rain = 0
KST3 200159Z 17012KT 17/M00 A2977 RMK A01 T01731002  RH  031%=      5-min Rain = 0
KST3 200200Z 17013KT 17/M00 A2977 RMK A01 T01721002  RH  031%=      5-min Rain = 0
KST3 200201Z 17012KT 17/M00 A2977 RMK A01 T01721002  RH  031%=      5-min Rain = 0
KST3 200202Z 17012KT 17/M00 A2977 RMK A01 T01701002  RH  031%=      5-min Rain = 0
KST3 200203Z 17013KT 17/M00 A2977 RMK A01 T01701002  RH  031%=      5-min Rain = 0
KST3 200204Z 17013KT 17/M00 A2977 RMK A01 T01701001  RH  031%=      5-min Rain = 0
KST3 200205Z 18014KT 17/M00 A2977 RMK A01 T01701001  RH  031%=      5-min Rain = 0
KST3 200206Z 17013KT 17/M00 A2977 RMK A01 T01701001  RH  031%=      5-min Rain = 0
KST3 200207Z 17013KT 17/M00 A2977 RMK A01 T01691001  RH  032%=      5-min Rain = 0
KST3 200208Z 17013KT 17/M00 A2977 RMK A01 T01691001  RH  032%=      5-min Rain = 0
KST3 200209Z 17012KT 17/M00 A2977 RMK A01 T01681001  RH  032%=      5-min Rain = 0
KST3 200210Z 17013KT 17/M00 A2977 RMK A01 T01671001  RH  032%=      5-min Rain = 0
KST3 200211Z 17013KT 17/M00 A2977 RMK A01 T01671001  RH  032%=      5-min Rain = 0
KST3 200212Z 18013KT 17/M00 A2977 RMK A01 T01681001  RH  032%=      5-min Rain = 0
KST3 200213Z 17012KT 17/00 A2977 RMK A01 T016800-0  RH  032%=      5-min Rain = 0
KST3 200214Z 17012KT 17/M00 A2977 RMK A01 T01671001  RH  032%=      5-min Rain = 0
KST3 200215Z 17013G18KT 17/M00 A2977 RMK A01 T01661001  RH  032%=      5-min Rain = 0
KST3 200216Z 17013KT 17/00 A2977 RMK A01 T016700-0  RH  032%=      5-min Rain = 0
KST3 200217Z 17013KT 17/00 A2977 RMK A01 T01680000  RH  032%=      5-min Rain = 0
KST3 200218Z 17013KT 17/00 A2977 RMK A01 T01670000  RH  032%=      5-min Rain = 0
KST3 200219Z 17014KT 17/00 A2977 RMK A01 T01670000  RH  032%=      5-min Rain = 0
KST3 200220Z 17014KT 17/00 A2977 RMK A01 T01680001  RH  032%=      5-min Rain = 0
KST3 200221Z 17015KT 17/00 A2977 RMK A01 T01680001  RH  032%=      5-min Rain = 0
KST3 200222Z 17012KT 17/00 A2977 RMK A01 T01680001  RH  032%=      5-min Rain = 0
KST3 200223Z 17014KT 17/00 A2977 RMK A01 T01680001  RH  032%=      5-min Rain = 0
KST3 200224Z 17013KT 17/00 A2977 RMK A01 T01680001  RH  032%=      5-min Rain = 0
KST3 200225Z 17013KT 17/00 A2977 RMK A01 T01670001  RH  032%=      5-min Rain = 0
KST3 200226Z 17014KT 17/00 A2977 RMK A01 T01670002  RH  032%=      5-min Rain = 0
KST3 200227Z 17013KT 17/00 A2977 RMK A01 T01670002  RH  032%=      5-min Rain = 0
KST3 200228Z 17013KT 17/00 A2977 RMK A01 T01670002  RH  033%=      5-min Rain = 0
KST3 200229Z 17013KT 17/00 A2977 RMK A01 T01670002  RH  033%=      5-min Rain = 0
KST3 200230Z 17012KT 17/00 A2977 RMK A01 T01670002  RH  033%=      5-min Rain = 0
KST3 200231Z 17013KT 17/00 A2977 RMK A01 T01670002  RH  033%=      5-min Rain = 0
KST3 200232Z 17012KT 17/00 A2977 RMK A01 T01670003  RH  033%=      5-min Rain = 0
KST3 200233Z 17013KT 17/00 A2977 RMK A01 T01660003  RH  033%=      5-min Rain = 0
KST3 200234Z 17012KT 17/00 A2977 RMK A01 T01660003  RH  033%=      5-min Rain = 0
KST3 200235Z 17013KT 17/00 A2977 RMK A01 T01650003  RH  033%=      5-min Rain = 0
KST3 200236Z 18013KT 16/00 A2977 RMK A01 T01640004  RH  034%=      5-min Rain = 0
KST3 200237Z 18012KT 16/00 A2977 RMK A01 T01640004  RH  034%=      5-min Rain = 0
KST3 200238Z 17015KT 17/00 A2977 RMK A01 T01650004  RH  034%=      5-min Rain = 0
KST3 200239Z 18014KT 17/00 A2977 RMK A01 T01650004  RH  034%=      5-min Rain = 0
KST3 200240Z 17013KT 17/00 A2977 RMK A01 T01650004  RH  034%=      5-min Rain = 0
KST3 200241Z 18015KT 17/01 A2977 RMK A01 T01650005  RH  034%=      5-min Rain = 0
KST3 200242Z 17012KT 17/01 A2977 RMK A01 T01650005  RH  034%=      5-min Rain = 0
KST3 200243Z 18015G20KT 17/01 A2977 RMK A01 T01650006  RH  034%=      5-min Rain = 0
KST3 200244Z 18014KT 17/01 A2977 RMK A01 T01650006  RH  034%=      5-min Rain = 0
KST3 200245Z 18012KT 17/01 A2977 RMK A01 T01660006  RH  034%=      5-min Rain = 0
KST3 200246Z 17017KT 17/01 A2977 RMK A01 T01650006  RH  034%=      5-min Rain = 0
KST3 200247Z 18015KT 17/01 A2977 RMK A01 T01650006  RH  034%=      5-min Rain = 0
KST3 200248Z 18015KT 17/01 A2977 RMK A01 T01670007  RH  034%=      5-min Rain = 0
KST3 200249Z 18015KT 17/01 A2977 RMK A01 T01670007  RH  034%=      5-min Rain = 0
KST3 200250Z 18015KT 17/01 A2977 RMK A01 T01670007  RH  034%=      5-min Rain = 0
KST3 200251Z 18014KT 17/01 A2977 RMK A01 T01670007  RH  034%=      5-min Rain = 0
KST3 200252Z 18014KT 17/01 A2977 RMK A01 T01670008  RH  034%=      5-min Rain = 0
KST3 200253Z 18014KT 17/01 A2977 RMK A01 T01660007  RH  034%=      5-min Rain = 0
KST3 200254Z 18015KT 17/01 A2977 RMK A01 T01660007  RH  034%=      5-min Rain = 0
KST3 200255Z 18017KT 17/01 A2977 RMK A01 T01660008  RH  034%=      5-min Rain = 0
KST3 200256Z 18015KT 17/01 A2977 RMK A01 T01660008  RH  034%=      5-min Rain = 0
KST3 200257Z 18015KT 17/01 A2977 RMK A01 T01670008  RH  034%=      5-min Rain = 0
KST3 200258Z 18014KT 17/01 A2977 RMK A01 T01670008  RH  034%=      5-min Rain = 0
KST3 200259Z 18013KT 17/01 A2977 RMK A01 T01650008  RH  034%=      5-min Rain = 0
KST3 200300Z 18014KT 16/01 A2977 RMK A01 T01640008  RH  035%=      5-min Rain = 0
KST3 200301Z 18014KT 16/01 A2977 RMK A01 T01640009  RH  035%=      5-min Rain = 0
KST3 200302Z 18014KT 16/01 A2977 RMK A01 T01640009  RH  035%=      5-min Rain = 0
KST3 200303Z 18013KT 17/01 A2977 RMK A01 T01650009  RH  035%=      5-min Rain = 0
KST3 200304Z 18014KT 17/01 A2977 RMK A01 T01650009  RH  035%=      5-min Rain = 0
KST3 200305Z 18012KT 16/01 A2977 RMK A01 T01640008  RH  035%=      5-min Rain = 0
KST3 200306Z 18013KT 16/01 A2977 RMK A01 T01640008  RH  035%=      5-min Rain = 0
KST3 200307Z 19011KT 16/01 A2977 RMK A01 T01630008  RH  035%=      5-min Rain = 0
KST3 200308Z 18012KT 16/01 A2977 RMK A01 T01620008  RH  035%=      5-min Rain = 0
KST3 200309Z 18011KT 16/01 A2977 RMK A01 T01620009  RH  035%=      5-min Rain = 0
KST3 200310Z 18010KT 16/01 A2977 RMK A01 T01620008  RH  035%=      5-min Rain = 0
KST3 200311Z 18012KT 16/01 A2977 RMK A01 T01610008  RH  035%=      5-min Rain = 0
KST3 200312Z 18011KT 16/01 A2977 RMK A01 T01610009  RH  036%=      5-min Rain = 0
KST3 200313Z 18011KT 16/01 A2977 RMK A01 T01600009  RH  036%=      5-min Rain = 0
KST3 200314Z 18009KT 16/01 A2977 RMK A01 T01600009  RH  036%=      5-min Rain = 0
KST3 200315Z 19011KT 16/01 A2977 RMK A01 T01590008  RH  036%=      5-min Rain = 0
KST3 200316Z 18010KT 16/01 A2977 RMK A01 T01590008  RH  036%=      5-min Rain = 0
KST3 200317Z 18012KT 16/01 A2977 RMK A01 T01590009  RH  036%=      5-min Rain = 0
KST3 200318Z 18011G16KT 16/01 A2977 RMK A01 T01590009  RH  036%=      5-min Rain = 0
KST3 200319Z 18010KT 16/01 A2977 RMK A01 T01600009  RH  036%=      5-min Rain = 0
KST3 200320Z 18010KT 16/01 A2977 RMK A01 T01590009  RH  036%=      5-min Rain = 0
KST3 200321Z 18012KT 16/01 A2977 RMK A01 T01590009  RH  036%=      5-min Rain = 0
KST3 200322Z 18011KT 16/01 A2977 RMK A01 T01590009  RH  036%=      5-min Rain = 0
KST3 200323Z 18015KT 16/01 A2977 RMK A01 T01590010  RH  036%=      5-min Rain = 0
KST3 200324Z 18014G19KT 16/01 A2977 RMK A01 T01600010  RH  036%=      5-min Rain = 0
KST3 200325Z 18015KT 16/01 A2977 RMK A01 T01620010  RH  036%=      5-min Rain = 0
KST3 200326Z 18014KT 16/01 A2977 RMK A01 T01620010  RH  036%=      5-min Rain = 0
KST3 200327Z 18015KT 16/01 A2977 RMK A01 T01620010  RH  036%=      5-min Rain = 0
KST3 200328Z 18014G20KT 16/01 A2977 RMK A01 T01620010  RH  036%=      5-min Rain = 0
KST3 200329Z 18013KT 16/01 A2977 RMK A01 T01610010  RH  036%=      5-min Rain = 0
KST3 200330Z 18015G22KT 16/01 A2977 RMK A01 T01610010  RH  036%=      5-min Rain = 0
KST3 200331Z 18016KT 16/01 A2977 RMK A01 T01600010  RH  036%=      5-min Rain = 0
KST3 200332Z 18013KT 16/01 A2977 RMK A01 T01600010  RH  036%=      5-min Rain = 0
KST3 200333Z 18013KT 16/01 A2977 RMK A01 T01600010  RH  036%=      5-min Rain = 0
KST3 200334Z 17013KT 16/01 A2977 RMK A01 T01600010  RH  036%=      5-min Rain = 0
KST3 200335Z 18013KT 16/01 A2977 RMK A01 T01600011  RH  036%=      5-min Rain = 0
KST3 200336Z 18015KT 16/01 A2977 RMK A01 T01590011  RH  037%=      5-min Rain = 0
KST3 200337Z 18012KT 16/01 A2977 RMK A01 T01600011  RH  037%=      5-min Rain = 0
KST3 200338Z 17013G18KT 16/01 A2977 RMK A01 T01590011  RH  037%=      5-min Rain = 0
KST3 200339Z 18012KT 16/01 A2977 RMK A01 T01580011  RH  037%=      5-min Rain = 0
KST3 200340Z 18013KT 16/01 A2977 RMK A01 T01580011  RH  037%=      5-min Rain = 0
KST3 200341Z 18012KT 16/01 A2977 RMK A01 T01580011  RH  037%=      5-min Rain = 0
KST3 200342Z 18012G17KT 16/01 A2977 RMK A01 T01570011  RH  037%=      5-min Rain = 0
KST3 200343Z 18012KT 16/01 A2977 RMK A01 T01560011  RH  038%=      5-min Rain = 0
KST3 200344Z 18012KT 16/01 A2977 RMK A01 T01560012  RH  038%=      5-min Rain = 0
KST3 200345Z 18012KT 16/01 A2977 RMK A01 T01560012  RH  038%=      5-min Rain = 0
KST3 200346Z 19010KT 16/01 A2977 RMK A01 T01560012  RH  038%=      5-min Rain = 0
KST3 200347Z 19011KT 16/01 A2977 RMK A01 T01550012  RH  038%=      5-min Rain = 0
KST3 200348Z 19009KT 16/01 A2977 RMK A01 T01550012  RH  038%=      5-min Rain = 0
KST3 200349Z 19008KT 15/01 A2977 RMK A01 T01530012  RH  038%=      5-min Rain = 0
KST3 200350Z 19007KT 15/01 A2977 RMK A01 T01520011  RH  038%=      5-min Rain = 0
KST3 200351Z 19007KT 15/01 A2977 RMK A01 T01510011  RH  039%=      5-min Rain = 0
KST3 200352Z 19008KT 15/01 A2977 RMK A01 T01490011  RH  039%=      5-min Rain = 0
KST3 200353Z 18008KT 15/01 A2977 RMK A01 T01480011  RH  039%=      5-min Rain = 0
KST3 200354Z 18007KT 15/01 A2977 RMK A01 T01480011  RH  040%=      5-min Rain = 0
KST3 200355Z 18008KT 15/01 A2977 RMK A01 T01480012  RH  040%=      5-min Rain = 0
KST3 200356Z 18010KT 15/01 A2977 RMK A01 T01470012  RH  040%=      5-min Rain = 0
KST3 200357Z 17008KT 15/01 A2977 RMK A01 T01490012  RH  040%=      5-min Rain = 0
KST3 200358Z 18008KT 15/01 A2977 RMK A01 T01490012  RH  039%=      5-min Rain = 0
KST3 200359Z 18008KT 15/01 A2977 RMK A01 T01480012  RH  039%=      5-min Rain = 0
KST3 200400Z 17010KT 15/01 A2977 RMK A01 T01480012  RH  040%=      5-min Rain = 0
KST3 200401Z 18011KT 15/01 A2977 RMK A01 T01490013  RH  040%=      5-min Rain = 0
KST3 200402Z 18011KT 15/01 A2977 RMK A01 T01510013  RH  039%=      5-min Rain = 0
KST3 200403Z 18011KT 15/01 A2977 RMK A01 T01510013  RH  039%=      5-min Rain = 0
KST3 200404Z 18010KT 15/01 A2977 RMK A01 T01520013  RH  039%=      5-min Rain = 0
KST3 200405Z 18010KT 15/01 A2978 RMK A01 T01510013  RH  039%=      5-min Rain = 0
KST3 200406Z 18010KT 15/01 A2977 RMK A01 T01500012  RH  039%=      5-min Rain = 0
KST3 200407Z 18009KT 15/01 A2978 RMK A01 T01500012  RH  039%=      5-min Rain = 0
KST3 200408Z 18008KT 15/01 A2978 RMK A01 T01490013  RH  039%=      5-min Rain = 0
KST3 200409Z 19009KT 15/01 A2978 RMK A01 T01480012  RH  040%=      5-min Rain = 0
KST3 200410Z 18009KT 15/01 A2978 RMK A01 T01470012  RH  040%=      5-min Rain = 0
KST3 200411Z 19008KT 15/01 A2978 RMK A01 T01460012  RH  040%=      5-min Rain = 0
KST3 200412Z 19008KT 15/01 A2978 RMK A01 T01460012  RH  040%=      5-min Rain = 0
KST3 200413Z 19008KT 15/01 A2978 RMK A01 T01450012  RH  040%=      5-min Rain = 0
KST3 200414Z 19008KT 14/01 A2978 RMK A01 T01440012  RH  040%=      5-min Rain = 0
KST3 200415Z 19008KT 14/01 A2978 RMK A01 T01440012  RH  041%=      5-min Rain = 0
KST3 200416Z 19009KT 14/01 A2978 RMK A01 T01430011  RH  041%=      5-min Rain = 0
KST3 200417Z 19008KT 14/01 A2978 RMK A01 T01430011  RH  041%=      5-min Rain = 0
KST3 200418Z 19007KT 14/01 A2977 RMK A01 T01430011  RH  041%=      5-min Rain = 0
KST3 200419Z 19008KT 14/01 A2977 RMK A01 T01430011  RH  041%=      5-min Rain = 0
KST3 200420Z 19007KT 14/01 A2977 RMK A01 T01430011  RH  041%=      5-min Rain = 0
KST3 200421Z 19007KT 14/01 A2977 RMK A01 T01430011  RH  041%=      5-min Rain = 0
KST3 200422Z 19007KT 14/01 A2977 RMK A01 T01430011  RH  041%=      5-min Rain = 0
KST3 200423Z 19007KT 14/01 A2977 RMK A01 T01430011  RH  041%=      5-min Rain = 0
KST3 200424Z 19008KT 14/01 A2977 RMK A01 T01430011  RH  041%=      5-min Rain = 0
KST3 200425Z 19007KT 14/01 A2977 RMK A01 T01420011  RH  041%=      5-min Rain = 0
KST3 200426Z 19008KT 14/01 A2977 RMK A01 T01420011  RH  041%=      5-min Rain = 0
KST3 200427Z 19008KT 14/01 A2977 RMK A01 T01420011  RH  041%=      5-min Rain = 0
KST3 200428Z 19009KT 14/01 A2977 RMK A01 T01420011  RH  041%=      5-min Rain = 0
KST3 200429Z 19009KT 14/01 A2977 RMK A01 T01420011  RH  041%=      5-min Rain = 0
KST3 200430Z 19009KT 14/01 A2977 RMK A01 T01430012  RH  041%=      5-min Rain = 0
KST3 200431Z 19009KT 14/01 A2977 RMK A01 T01440012  RH  041%=      5-min Rain = 0
KST3 200432Z 19009KT 14/01 A2977 RMK A01 T01440012  RH  041%=      5-min Rain = 0
KST3 200433Z 19009KT 14/01 A2977 RMK A01 T01440012  RH  041%=      5-min Rain = 0
KST3 200434Z 19008KT 15/01 A2977 RMK A01 T01450012  RH  041%=      5-min Rain = 0
KST3 200435Z 19009KT 14/01 A2977 RMK A01 T01440012  RH  041%=      5-min Rain = 0
KST3 200436Z 19010KT 14/01 A2977 RMK A01 T01440012  RH  041%=      5-min Rain = 0
KST3 200437Z 19009KT 14/01 A2977 RMK A01 T01440012  RH  041%=      5-min Rain = 0
KST3 200438Z 19010KT 14/01 A2977 RMK A01 T01430012  RH  041%=      5-min Rain = 0
KST3 200439Z 19009KT 14/01 A2977 RMK A01 T01430012  RH  041%=      5-min Rain = 0
KST3 200440Z 20009KT 14/01 A2977 RMK A01 T01430011  RH  041%=      5-min Rain = 0
KST3 200441Z 19009G14KT 14/01 A2977 RMK A01 T01430012  RH  041%=      5-min Rain = 0
KST3 200442Z 20009KT 14/01 A2977 RMK A01 T01440011  RH  040%=      5-min Rain = 0
KST3 200443Z 20009G15KT 15/01 A2977 RMK A01 T01450011  RH  040%=      5-min Rain = 0
KST3 200444Z 20009KT 15/01 A2977 RMK A01 T01450011  RH  040%=      5-min Rain = 0
KST3 200445Z 19010KT 14/01 A2977 RMK A01 T01430010  RH  040%=      5-min Rain = 0
KST3 200446Z 19009KT 14/01 A2977 RMK A01 T01430011  RH  041%=      5-min Rain = 0
KST3 200447Z 19010KT 14/01 A2977 RMK A01 T01420011  RH  041%=      5-min Rain = 0
KST3 200448Z 19010KT 14/01 A2977 RMK A01 T01410011  RH  041%=      5-min Rain = 0
KST3 200449Z 19010KT 14/01 A2977 RMK A01 T01410011  RH  041%=      5-min Rain = 0
KST3 200450Z 20010KT 14/01 A2977 RMK A01 T01420011  RH  041%=      5-min Rain = 0
KST3 200451Z 19010KT 14/01 A2977 RMK A01 T01410010  RH  041%=      5-min Rain = 0
KST3 200452Z 19010G15KT 14/01 A2977 RMK A01 T01410010  RH  041%=      5-min Rain = 0
KST3 200453Z 19012KT 14/01 A2977 RMK A01 T01410010  RH  041%=      5-min Rain = 0
KST3 200454Z 19011KT 14/01 A2977 RMK A01 T01420011  RH  041%=      5-min Rain = 0
KST3 200455Z 19011KT 14/01 A2977 RMK A01 T01420010  RH  041%=      5-min Rain = 0
KST3 200456Z 19011KT 14/01 A2977 RMK A01 T01420011  RH  041%=      5-min Rain = 0
KST3 200457Z 20010KT 14/01 A2977 RMK A01 T01420010  RH  041%=      5-min Rain = 0
KST3 200458Z 19010KT 14/01 A2977 RMK A01 T01410010  RH  041%=      5-min Rain = 0
KST3 200459Z 19010KT 14/01 A2977 RMK A01 T01410010  RH  041%=      5-min Rain = 0
KST3 200500Z 19011KT 14/01 A2977 RMK A01 T01400010  RH  041%=      5-min Rain = 0
KST3 200501Z 20010KT 14/01 A2977 RMK A01 T01390010  RH  041%=      5-min Rain = 0
KST3 200502Z 20009KT 14/01 A2977 RMK A01 T01390010  RH  041%=      5-min Rain = 0
KST3 200503Z 19010KT 14/01 A2977 RMK A01 T01380010  RH  042%=      5-min Rain = 0
KST3 200504Z 19010KT 14/01 A2977 RMK A01 T01380010  RH  042%=      5-min Rain = 0
KST3 200505Z 19011KT 14/01 A2976 RMK A01 T01380010  RH  042%=      5-min Rain = 0
KST3 200506Z 20010KT 14/01 A2977 RMK A01 T01380010  RH  042%=      5-min Rain = 0
KST3 200507Z 20010KT 14/01 A2976 RMK A01 T01370010  RH  042%=      5-min Rain = 0
KST3 200508Z 20010KT 14/01 A2976 RMK A01 T01360010  RH  042%=      5-min Rain = 0
KST3 200509Z 20011KT 14/01 A2977 RMK A01 T01360010  RH  042%=      5-min Rain = 0
KST3 200510Z 20011KT 14/01 A2977 RMK A01 T01370010  RH  042%=      5-min Rain = 0
KST3 200511Z 20011KT 14/01 A2977 RMK A01 T01370010  RH  042%=      5-min Rain = 0
KST3 200512Z 20010KT 14/01 A2977 RMK A01 T01380010  RH  042%=      5-min Rain = 0
KST3 200513Z 19010KT 14/01 A2977 RMK A01 T01380009  RH  041%=      5-min Rain = 0
KST3 200514Z 20010KT 14/01 A2977 RMK A01 T01380010  RH  041%=      5-min Rain = 0
KST3 200515Z 20010KT 14/01 A2977 RMK A01 T01380009  RH  041%=      5-min Rain = 0
KST3 200516Z 20010KT 14/01 A2977 RMK A01 T01380009  RH  042%=      5-min Rain = 0
KST3 200517Z 20010KT 14/01 A2977 RMK A01 T01360009  RH  042%=      5-min Rain = 0
KST3 200518Z 20010KT 14/01 A2977 RMK A01 T01360008  RH  042%=      5-min Rain = 0
KST3 200519Z 20011KT 14/01 A2977 RMK A01 T01350009  RH  042%=      5-min Rain = 0
KST3 200520Z 20010KT 14/01 A2976 RMK A01 T01350009  RH  042%=      5-min Rain = 0
KST3 200521Z 20010KT 14/01 A2976 RMK A01 T01350008  RH  042%=      5-min Rain = 0
KST3 200522Z 20012KT 14/01 A2976 RMK A01 T01350009  RH  042%=      5-min Rain = 0
KST3 200523Z 20011KT 14/01 A2976 RMK A01 T01360009  RH  042%=      5-min Rain = 0
KST3 200524Z 20012KT 14/01 A2976 RMK A01 T01360008  RH  042%=      5-min Rain = 0
KST3 200525Z 20011KT 14/01 A2976 RMK A01 T01350008  RH  042%=      5-min Rain = 0
KST3 200526Z 20011KT 14/01 A2976 RMK A01 T01350008  RH  042%=      5-min Rain = 0
KST3 200527Z 20011KT 13/01 A2976 RMK A01 T01340008  RH  042%=      5-min Rain = 0
KST3 200528Z 20011KT 13/01 A2976 RMK A01 T01330008  RH  042%=      5-min Rain = 0
KST3 200529Z 20012KT 13/01 A2976 RMK A01 T01320008  RH  043%=      5-min Rain = 0
KST3 200530Z 20011KT 13/01 A2976 RMK A01 T01320008  RH  043%=      5-min Rain = 0
KST3 200531Z 20012KT 13/01 A2976 RMK A01 T01330008  RH  042%=      5-min Rain = 0
KST3 200532Z 20011KT 13/01 A2976 RMK A01 T01330008  RH  042%=      5-min Rain = 0
KST3 200533Z 20011KT 13/01 A2976 RMK A01 T01330008  RH  042%=      5-min Rain = 0
KST3 200534Z 20011KT 13/01 A2976 RMK A01 T01320007  RH  043%=      5-min Rain = 0
KST3 200535Z 20011KT 13/01 A2976 RMK A01 T01300007  RH  043%=      5-min Rain = 0
KST3 200536Z 20011KT 13/01 A2976 RMK A01 T01290007  RH  043%=      5-min Rain = 0
KST3 200537Z 20010KT 13/01 A2976 RMK A01 T01290007  RH  043%=      5-min Rain = 0
KST3 200538Z 19011KT 13/01 A2976 RMK A01 T01300008  RH  043%=      5-min Rain = 0
KST3 200539Z 20013KT 13/01 A2976 RMK A01 T01300008  RH  043%=      5-min Rain = 0
KST3 200540Z 20011KT 13/01 A2976 RMK A01 T01310008  RH  043%=      5-min Rain = 0
KST3 200541Z 20012KT 13/01 A2976 RMK A01 T01320008  RH  043%=      5-min Rain = 0
KST3 200542Z 20012KT 13/01 A2976 RMK A01 T01320008  RH  043%=      5-min Rain = 0
KST3 200543Z 20012KT 13/01 A2976 RMK A01 T01320007  RH  043%=      5-min Rain = 0
KST3 200544Z 20012KT 13/01 A2976 RMK A01 T01320008  RH  043%=      5-min Rain = 0
KST3 200545Z 20012KT 13/01 A2976 RMK A01 T01320008  RH  042%=      5-min Rain = 0
KST3 200546Z 19013KT 13/01 A2976 RMK A01 T01330008  RH  042%=      5-min Rain = 0
KST3 200547Z 20011KT 14/01 A2976 RMK A01 T01350008  RH  042%=      5-min Rain = 0
KST3 200548Z 20013KT 14/01 A2975 RMK A01 T01350008  RH  042%=      5-min Rain = 0
KST3 200549Z 20013KT 14/01 A2975 RMK A01 T01350008  RH  042%=      5-min Rain = 0
KST3 200550Z 19013KT 14/01 A2975 RMK A01 T01360008  RH  042%=      5-min Rain = 0
KST3 200551Z 19012KT 14/01 A2975 RMK A01 T01360008  RH  041%=      5-min Rain = 0
KST3 200552Z 20012KT 14/01 A2975 RMK A01 T01360007  RH  041%=      5-min Rain = 0
KST3 200553Z 20013KT 14/01 A2975 RMK A01 T01370007  RH  041%=      5-min Rain = 0
KST3 200554Z 20011KT 14/01 A2975 RMK A01 T01370008  RH  041%=      5-min Rain = 0
KST3 200555Z 20011KT 14/01 A2975 RMK A01 T01350007  RH  042%=      5-min Rain = 0
KST3 200556Z 20011KT 13/01 A2975 RMK A01 T01340007  RH  042%=      5-min Rain = 0
KST3 200557Z 20012KT 13/01 A2975 RMK A01 T01320007  RH  042%=      5-min Rain = 0
KST3 200558Z 20011KT 13/01 A2975 RMK A01 T01310007  RH  043%=      5-min Rain = 0
KST3 200559Z 20012KT 13/01 A2975 RMK A01 T01300007  RH  043%=      5-min Rain = 0

Page generated in 0.1707 seconds.